| time (UTC) | temp C | wind direction | speed KPH | gust KPH | rain 1hr cm | rain 24hr cm | rain mn cm | humidity % | barometer mb |
| 20260504204841 | 28 | 113 | 12.9 | 29.0 | 0.00 | 0.00 | 0.00 | 57 | 1010.3 |
| 20260504204740 | 28 | 118 | 11.3 | 29.0 | 0.00 | 0.00 | 0.00 | 57 | 1010.1 |
| 20260504204641 | 28 | 121 | 9.7 | 29.0 | 0.00 | 0.00 | 0.00 | 57 | 1010.2 |
| 20260504204541 | 28 | 123 | 9.7 | 29.0 | 0.00 | 0.00 | 0.00 | 56 | 1010.2 |
| 20260504204440 | 28 | 4 | 12.9 | 29.0 | 0.00 | 0.00 | 0.00 | 55 | 1010.2 |
| 20260504204334 | 28 | 168 | 12.9 | 29.0 | 0.00 | 0.00 | 0.00 | 55 | 1010.3 |
| 20260504204234 | 29 | 157 | 9.7 | 29.0 | 0.00 | 0.00 | 0.00 | 56 | 1010.2 |
| 20260504204131 | 29 | 107 | 9.7 | 29.0 | 0.00 | 0.00 | 0.00 | 56 | 1010.3 |
| 20260504204030 | 29 | 250 | 11.3 | 29.0 | 0.00 | 0.00 | 0.00 | 56 | 1010.3 |
| 20260504203932 | 29 | 123 | 9.7 | 29.0 | 0.00 | 0.00 | 0.00 | 56 | 1010.2 |
| 20260504203832 | 28 | 103 | 6.4 | 20.9 | 0.00 | 0.00 | 0.00 | 55 | 1010.2 |
| 20260504203730 | 28 | 178 | 8.0 | 20.9 | 0.00 | 0.00 | 0.00 | 57 | 1010.2 |
| 20260504203631 | 28 | 125 | 8.0 | 20.9 | 0.00 | 0.00 | 0.00 | 57 | 1010.2 |
| 20260504203532 | 28 | 152 | 8.0 | 20.9 | 0.00 | 0.00 | 0.00 | 58 | 1010.2 |
| 20260504203431 | 28 | 149 | 8.0 | 20.9 | 0.00 | 0.00 | 0.00 | 57 | 1010.2 |
| 20260504203331 | 27 | 182 | 8.0 | 20.9 | 0.00 | 0.00 | 0.00 | 56 | 1010.2 |
| 20260504203232 | 28 | 195 | 9.7 | 20.9 | 0.00 | 0.00 | 0.00 | 56 | 1010.3 |
| 20260504203115 | 28 | 164 | 9.7 | 24.1 | 0.00 | 0.00 | 0.00 | 56 | 1010.4 |
| 20260504203015 | 28 | 245 | 9.7 | 24.1 | 0.00 | 0.00 | 0.00 | 55 | 1010.4 |
| 20260504202913 | 28 | 161 | 8.0 | 24.1 | 0.00 | 0.00 | 0.00 | 55 | 1010.5 |
| 20260504202810 | 28 | 212 | 9.7 | 24.1 | 0.00 | 0.00 | 0.00 | 55 | 1010.5 |
| 20260504202709 | 28 | 157 | 11.3 | 24.1 | 0.00 | 0.00 | 0.00 | 54 | 1010.5 |
| 20260504202607 | 29 | 204 | 8.0 | 24.1 | 0.00 | 0.00 | 0.00 | 54 | 1010.5 |
| 20260504202502 | 29 | 178 | 6.4 | 24.1 | 0.00 | 0.00 | 0.00 | 54 | 1010.5 |
| 20260504202403 | 29 | 141 | 8.0 | 24.1 | 0.00 | 0.00 | 0.00 | 54 | 1010.5 |
| 20260504202304 | 29 | 196 | 11.3 | 24.1 | 0.00 | 0.00 | 0.00 | 54 | 1010.6 |
| 20260504202203 | 29 | 226 | 12.9 | 24.1 | 0.00 | 0.00 | 0.00 | 54 | 1010.5 |
| 20260504202102 | 29 | 196 | 8.0 | 17.7 | 0.00 | 0.00 | 0.00 | 53 | 1010.5 |
| 20260504202003 | 29 | 224 | 6.4 | 17.7 | 0.00 | 0.00 | 0.00 | 56 | 1010.6 |
| 20260504201902 | 28 | 226 | 4.8 | 17.7 | 0.00 | 0.00 | 0.00 | 57 | 1010.7 |
| 20260504201803 | 28 | 241 | 4.8 | 17.7 | 0.00 | 0.00 | 0.00 | 56 | 1010.6 |
| 20260504201701 | 28 | 133 | 6.4 | 22.5 | 0.00 | 0.00 | 0.00 | 56 | 1010.6 |
| 20260504201603 | 27 | 145 | 6.4 | 22.5 | 0.00 | 0.00 | 0.00 | 58 | 1010.6 |
| 20260504201502 | 27 | 102 | 9.7 | 25.7 | 0.00 | 0.00 | 0.00 | 57 | 1010.7 |
| 20260504201402 | 27 | 165 | 8.0 | 25.7 | 0.00 | 0.00 | 0.00 | 57 | 1010.8 |
| 20260504201304 | 27 | 189 | 6.4 | 25.7 | 0.00 | 0.00 | 0.00 | 57 | 1010.8 |
| 20260504201203 | 27 | 96 | 8.0 | 25.7 | 0.00 | 0.00 | 0.00 | 57 | 1010.8 |
| 20260504201102 | 27 | 190 | 9.7 | 25.7 | 0.00 | 0.00 | 0.00 | 56 | 1010.8 |
| 20260504201002 | 27 | 133 | 8.0 | 25.7 | 0.00 | 0.00 | 0.00 | 56 | 1010.8 |
| 20260504200903 | 28 | 162 | 11.3 | 25.7 | 0.00 | 0.00 | 0.00 | 56 | 1010.8 |
| 20260504200802 | 28 | 195 | 12.9 | 25.7 | 0.00 | 0.00 | 0.00 | 54 | 1010.9 |
| 20260504200702 | 28 | 161 | 12.9 | 25.7 | 0.00 | 0.00 | 0.00 | 54 | 1010.9 |
| 20260504200604 | 28 | 159 | 12.9 | 25.7 | 0.00 | 0.00 | 0.00 | 55 | 1010.8 |
| 20260504200504 | 28 | 141 | 9.7 | 24.1 | 0.00 | 0.00 | 0.00 | 56 | 1010.8 |
| 20260504200401 | 28 | 159 | 9.7 | 24.1 | 0.00 | 0.00 | 0.00 | 57 | 1010.9 |
| 20260504200301 | 28 | 175 | 9.7 | 25.7 | 0.00 | 0.00 | 0.00 | 56 | 1010.9 |
| 20260504200204 | 28 | 168 | 9.7 | 25.7 | 0.00 | 0.00 | 0.00 | 57 | 1011.0 |
| 20260504200103 | 28 | 71 | 12.9 | 25.7 | 0.00 | 0.00 | 0.00 | 56 | 1010.9 |
| 20260504200004 | 27 | 123 | 12.9 | 25.7 | 0.00 | 0.00 | 0.00 | 56 | 1011.0 |
| 20260504195903 | 27 | 117 | 9.7 | 25.7 | 0.00 | 0.00 | 0.00 | 56 | 1011.0 |
| 20260504195803 | 27 | 180 | 9.7 | 25.7 | 0.00 | 0.00 | 0.00 | 56 | 1011.0 |
| 20260504195702 | 28 | 133 | 9.7 | 25.7 | 0.00 | 0.00 | 0.00 | 55 | 1011.1 |
| 20260504195603 | 28 | 193 | 9.7 | 25.7 | 0.00 | 0.00 | 0.00 | 55 | 1011.2 |
| 20260504195503 | 28 | 165 | 12.9 | 25.7 | 0.00 | 0.00 | 0.00 | 55 | 1011.1 |
| 20260504195402 | 28 | 162 | 12.9 | 25.7 | 0.00 | 0.00 | 0.00 | 53 | 1011.2 |
| 20260504195304 | 28 | 203 | 9.7 | 20.9 | 0.00 | 0.00 | 0.00 | 53 | 1011.2 |
| 20260504195202 | 28 | 148 | 9.7 | 20.9 | 0.00 | 0.00 | 0.00 | 53 | 1011.1 |
| 20260504195102 | 28 | 154 | 8.0 | 24.1 | 0.00 | 0.00 | 0.00 | 53 | 1011.0 |
| 20260504195003 | 28 | 209 | 8.0 | 24.1 | 0.00 | 0.00 | 0.00 | 53 | 1011.0 |
| 20260504194902 | 28 | 233 | 9.7 | 24.1 | 0.00 | 0.00 | 0.00 | 54 | 1011.0 |
| 20260504194802 | 28 | 164 | 9.7 | 24.1 | 0.00 | 0.00 | 0.00 | 53 | 1011.1 |
| 20260504194702 | 28 | 151 | 11.3 | 24.1 | 0.00 | 0.00 | 0.00 | 54 | 1011.0 |
| 20260504194603 | 28 | 172 | 11.3 | 24.1 | 0.00 | 0.00 | 0.00 | 54 | 1011.0 |
| 20260504194504 | 28 | 157 | 12.9 | 24.1 | 0.00 | 0.00 | 0.00 | 55 | 1011.1 |
| 20260504194402 | 28 | 140 | 11.3 | 24.1 | 0.00 | 0.00 | 0.00 | 55 | 1011.1 |
| 20260504194304 | 28 | 162 | 9.7 | 24.1 | 0.00 | 0.00 | 0.00 | 55 | 1011.1 |
| 20260504194203 | 28 | 58 | 11.3 | 24.1 | 0.00 | 0.00 | 0.00 | 56 | 1011.2 |
| 20260504194102 | 28 | 159 | 11.3 | 22.5 | 0.00 | 0.00 | 0.00 | 56 | 1011.2 |
| 20260504194003 | 28 | 178 | 11.3 | 22.5 | 0.00 | 0.00 | 0.00 | 56 | 1011.2 |
| 20260504193901 | 28 | 111 | 9.7 | 22.5 | 0.00 | 0.00 | 0.00 | 56 | 1011.2 |
| 20260504193802 | 28 | 52 | 9.7 | 22.5 | 0.00 | 0.00 | 0.00 | 55 | 1011.3 |
| 20260504193702 | 28 | 154 | 9.7 | 22.5 | 0.00 | 0.00 | 0.00 | 56 | 1011.3 |
| 20260504193602 | 28 | 169 | 9.7 | 22.5 | 0.00 | 0.00 | 0.00 | 55 | 1011.3 |
| 20260504193504 | 28 | 243 | 8.0 | 22.5 | 0.00 | 0.00 | 0.00 | 56 | 1011.3 |
| 20260504193403 | 28 | 193 | 9.7 | 22.5 | 0.00 | 0.00 | 0.00 | 55 | 1011.3 |
| 20260504193302 | 28 | 123 | 12.9 | 22.5 | 0.00 | 0.00 | 0.00 | 55 | 1011.3 |
| 20260504193203 | 28 | 179 | 11.3 | 22.5 | 0.00 | 0.00 | 0.00 | 56 | 1011.4 |
| 20260504193103 | 28 | 111 | 8.0 | 19.3 | 0.00 | 0.00 | 0.00 | 56 | 1011.3 |
| 20260504193004 | 28 | 128 | 6.4 | 19.3 | 0.00 | 0.00 | 0.00 | 55 | 1011.4 |
| 20260504192902 | 28 | 71 | 9.7 | 19.3 | 0.00 | 0.00 | 0.00 | 54 | 1011.5 |
| 20260504192803 | 28 | 148 | 11.3 | 19.3 | 0.00 | 0.00 | 0.00 | 53 | 1011.4 |
| 20260504192703 | 28 | 78 | 9.7 | 17.7 | 0.00 | 0.00 | 0.00 | 54 | 1011.4 |
| 20260504192602 | 28 | 135 | 6.4 | 16.1 | 0.00 | 0.00 | 0.00 | 53 | 1011.4 |
| 20260504192505 | 28 | 223 | 4.8 | 19.3 | 0.00 | 0.00 | 0.00 | 52 | 1011.4 |
| 20260504192404 | 28 | 186 | 6.4 | 19.3 | 0.00 | 0.00 | 0.00 | 54 | 1011.5 |
| 20260504192304 | 28 | 154 | 4.8 | 19.3 | 0.00 | 0.00 | 0.00 | 55 | 1011.5 |
| 20260504192202 | 28 | 82 | 6.4 | 19.3 | 0.00 | 0.00 | 0.00 | 56 | 1011.5 |
| 20260504192104 | 28 | 189 | 9.7 | 20.9 | 0.00 | 0.00 | 0.00 | 56 | 1011.5 |
| 20260504192002 | 28 | 148 | 9.7 | 20.9 | 0.00 | 0.00 | 0.00 | 56 | 1011.6 |
| 20260504191901 | 27 | 145 | 8.0 | 20.9 | 0.00 | 0.00 | 0.00 | 56 | 1011.7 |
| 20260504191801 | 27 | 213 | 8.0 | 20.9 | 0.00 | 0.00 | 0.00 | 56 | 1011.6 |
| 20260504191702 | 27 | 166 | 12.9 | 20.9 | 0.00 | 0.00 | 0.00 | 55 | 1011.7 |
| 20260504191601 | 27 | 171 | 12.9 | 22.5 | 0.00 | 0.00 | 0.00 | 55 | 1011.6 |
| 20260504191503 | 28 | 203 | 9.7 | 22.5 | 0.00 | 0.00 | 0.00 | 55 | 1011.7 |
| 20260504191403 | 28 | 173 | 9.7 | 22.5 | 0.00 | 0.00 | 0.00 | 54 | 1011.6 |
| 20260504191303 | 28 | 199 | 12.9 | 22.5 | 0.00 | 0.00 | 0.00 | 54 | 1011.6 |
| 20260504191202 | 28 | 228 | 11.3 | 22.5 | 0.00 | 0.00 | 0.00 | 54 | 1011.6 |
| 20260504191104 | 28 | 226 | 6.4 | 22.5 | 0.00 | 0.00 | 0.00 | 54 | 1011.8 |
| 20260504191002 | 28 | 243 | 8.0 | 22.5 | 0.00 | 0.00 | 0.00 | 55 | 1011.8 |
| 20260504190902 | 27 | 233 | 11.3 | 24.1 | 0.00 | 0.00 | 0.00 | 55 | 1011.7 |
| 20260504190804 | 28 | 221 | 12.9 | 24.1 | 0.00 | 0.00 | 0.00 | 54 | 1011.8 |
| 20260504190702 | 28 | 165 | 11.3 | 24.1 | 0.00 | 0.00 | 0.00 | 55 | 1011.9 |
| 20260504190603 | 28 | 165 | 9.7 | 24.1 | 0.00 | 0.00 | 0.00 | 55 | 1011.8 |
| 20260504190504 | 27 | 109 | 9.7 | 24.1 | 0.00 | 0.00 | 0.00 | 56 | 1011.8 |
| 20260504190404 | 27 | 154 | 11.3 | 24.1 | 0.00 | 0.00 | 0.00 | 55 | 1011.8 |
| 20260504190301 | 27 | 189 | 12.9 | 24.1 | 0.00 | 0.00 | 0.00 | 55 | 1011.8 |
| 20260504190200 | 27 | 189 | 14.5 | 24.1 | 0.00 | 0.00 | 0.00 | 55 | 1011.8 |
| 20260504190059 | 27 | 202 | 16.1 | 24.1 | 0.00 | 0.00 | 0.00 | 55 | 1011.8 |
| 20260504185956 | 27 | 203 | 14.5 | 27.4 | 0.00 | 0.00 | 0.00 | 56 | 1011.7 |
| 20260504185855 | 27 | 259 | 12.9 | 27.4 | 0.00 | 0.00 | 0.00 | 55 | 1011.8 |
| 20260504185754 | 27 | 234 | 14.5 | 27.4 | 0.00 | 0.00 | 0.00 | 54 | 1011.9 |
| 20260504185652 | 27 | 206 | 14.5 | 27.4 | 0.00 | 0.00 | 0.00 | 54 | 1011.8 |
| 20260504185551 | 27 | 227 | 14.5 | 27.4 | 0.00 | 0.00 | 0.00 | 53 | 1011.9 |
| 20260504185449 | 28 | 206 | 14.5 | 27.4 | 0.00 | 0.00 | 0.00 | 53 | 1011.9 |
| 20260504185348 | 28 | 190 | 12.9 | 27.4 | 0.00 | 0.00 | 0.00 | 53 | 1011.8 |
| 20260504185246 | 28 | 188 | 14.5 | 27.4 | 0.00 | 0.00 | 0.00 | 52 | 1011.9 |
| 20260504185146 | 28 | 214 | 14.5 | 27.4 | 0.00 | 0.00 | 0.00 | 52 | 1011.9 |
| 20260504185045 | 28 | 261 | 14.5 | 27.4 | 0.00 | 0.00 | 0.00 | 54 | 1011.9 |
| 20260504184944 | 28 | 224 | 11.3 | 25.7 | 0.00 | 0.00 | 0.00 | 53 | 1011.9 |
| 20260504184842 | 28 | 173 | 8.0 | 27.4 | 0.00 | 0.00 | 0.00 | 54 | 1011.9 |
| 20260504184740 | 28 | 109 | 6.4 | 27.4 | 0.00 | 0.00 | 0.00 | 53 | 1011.9 |
| 20260504184638 | 28 | 202 | 4.8 | 27.4 | 0.00 | 0.00 | 0.00 | 53 | 1011.9 |
| 20260504184540 | 28 | 117 | 4.8 | 27.4 | 0.00 | 0.00 | 0.00 | 55 | 1012.0 |
| 20260504184437 | 28 | 189 | 9.7 | 27.4 | 0.00 | 0.00 | 0.00 | 54 | 1012.0 |
| 20260504184339 | 28 | 117 | 9.7 | 27.4 | 0.00 | 0.00 | 0.00 | 55 | 1012.0 |
| 20260504184239 | 27 | 142 | 9.7 | 27.4 | 0.00 | 0.00 | 0.00 | 55 | 1012.0 |
| 20260504184138 | 27 | 107 | 12.9 | 27.4 | 0.00 | 0.00 | 0.00 | 54 | 1012.0 |
| 20260504184039 | 27 | 135 | 17.7 | 27.4 | 0.00 | 0.00 | 0.00 | 54 | 1012.0 |
| 20260504183938 | 27 | 161 | 16.1 | 27.4 | 0.00 | 0.00 | 0.00 | 54 | 1012.0 |
| 20260504183837 | 27 | 206 | 12.9 | 24.1 | 0.00 | 0.00 | 0.00 | 54 | 1012.0 |
| 20260504183737 | 27 | 210 | 11.3 | 20.9 | 0.00 | 0.00 | 0.00 | 55 | 1012.0 |
| 20260504183638 | 27 | 213 | 11.3 | 20.9 | 0.00 | 0.00 | 0.00 | 52 | 1012.0 |
| 20260504183537 | 27 | 202 | 11.3 | 20.9 | 0.00 | 0.00 | 0.00 | 52 | 1011.9 |
| 20260504183437 | 28 | 248 | 12.9 | 20.9 | 0.00 | 0.00 | 0.00 | 52 | 1012.0 |
| 20260504183337 | 28 | 235 | 12.9 | 20.9 | 0.00 | 0.00 | 0.00 | 51 | 1011.9 |
| 20260504183238 | 28 | 226 | 11.3 | 22.5 | 0.00 | 0.00 | 0.00 | 52 | 1012.0 |
| 20260504183137 | 28 | 214 | 9.7 | 22.5 | 0.00 | 0.00 | 0.00 | 54 | 1012.0 |
| 20260504183039 | 28 | 162 | 8.0 | 25.7 | 0.00 | 0.00 | 0.00 | 55 | 1011.9 |
| 20260504182938 | 28 | 106 | 6.4 | 25.7 | 0.00 | 0.00 | 0.00 | 56 | 1011.8 |
| 20260504182838 | 28 | 149 | 6.4 | 25.7 | 0.00 | 0.00 | 0.00 | 56 | 1011.8 |
| 20260504182737 | 27 | 276 | 6.4 | 25.7 | 0.00 | 0.00 | 0.00 | 54 | 1011.8 |
| 20260504182639 | 27 | 233 | 6.4 | 25.7 | 0.00 | 0.00 | 0.00 | 54 | 1011.9 |
| 20260504182537 | 27 | 220 | 6.4 | 25.7 | 0.00 | 0.00 | 0.00 | 54 | 1011.8 |
| 20260504182438 | 27 | 233 | 9.7 | 25.7 | 0.00 | 0.00 | 0.00 | 54 | 1011.9 |
| 20260504182335 | 27 | 227 | 12.9 | 25.7 | 0.00 | 0.00 | 0.00 | 54 | 1012.0 |
| 20260504182234 | 27 | 210 | 12.9 | 25.7 | 0.00 | 0.00 | 0.00 | 54 | 1012.1 |
| 20260504182132 | 27 | 162 | 14.5 | 25.7 | 0.00 | 0.00 | 0.00 | 55 | 1012.1 |
| 20260504182030 | 27 | 168 | 14.5 | 25.7 | 0.00 | 0.00 | 0.00 | 55 | 1012.1 |
| 20260504181932 | 27 | 178 | 12.9 | 25.7 | 0.00 | 0.00 | 0.00 | 56 | 1012.2 |
| 20260504181831 | 27 | 154 | 12.9 | 25.7 | 0.00 | 0.00 | 0.00 | 57 | 1012.2 |
| 20260504181730 | 27 | 165 | 11.3 | 25.7 | 0.00 | 0.00 | 0.00 | 58 | 1012.2 |
| 20260504181627 | 27 | 158 | 11.3 | 25.7 | 0.00 | 0.00 | 0.00 | 58 | 1012.2 |
| 20260504181526 | 26 | 172 | 9.7 | 25.7 | 0.00 | 0.00 | 0.00 | 58 | 1012.2 |
| 20260504181425 | 26 | 190 | 11.3 | 25.7 | 0.00 | 0.00 | 0.00 | 57 | 1012.3 |
| 20260504181323 | 27 | 203 | 16.1 | 25.7 | 0.00 | 0.00 | 0.00 | 56 | 1012.3 |
| 20260504181222 | 27 | 182 | 14.5 | 25.7 | 0.00 | 0.00 | 0.00 | 55 | 1012.3 |
| 20260504181120 | 27 | 142 | 11.3 | 25.7 | 0.00 | 0.00 | 0.00 | 56 | 1012.3 |
| 20260504181020 | 27 | 182 | 14.5 | 25.7 | 0.00 | 0.00 | 0.00 | 55 | 1012.3 |
| 20260504180918 | 27 | 193 | 12.9 | 25.7 | 0.00 | 0.00 | 0.00 | 56 | 1012.3 |
| 20260504180816 | 27 | 231 | 9.7 | 25.7 | 0.00 | 0.00 | 0.00 | 56 | 1012.3 |
| 20260504180715 | 27 | 61 | 11.3 | 25.7 | 0.00 | 0.00 | 0.00 | 56 | 1012.3 |
| 20260504180613 | 27 | 56 | 12.9 | 25.7 | 0.00 | 0.00 | 0.00 | 56 | 1012.3 |
| 20260504180513 | 27 | 172 | 12.9 | 25.7 | 0.00 | 0.00 | 0.00 | 55 | 1012.3 |
| 20260504180410 | 27 | 110 | 14.5 | 25.7 | 0.00 | 0.00 | 0.00 | 57 | 1012.4 |
| 20260504180309 | 27 | 168 | 11.3 | 25.7 | 0.00 | 0.00 | 0.00 | 57 | 1012.4 |
| 20260504180207 | 27 | 166 | 9.7 | 19.3 | 0.00 | 0.00 | 0.00 | 57 | 1012.4 |
| 20260504180106 | 27 | 209 | 12.9 | 19.3 | 0.00 | 0.00 | 0.00 | 57 | 1012.4 |
| 20260504180003 | 27 | 188 | 11.3 | 19.3 | 0.00 | 0.00 | 0.00 | 56 | 1012.5 |
| 20260504175904 | 27 | 151 | 9.7 | 17.7 | 0.00 | 0.00 | 0.00 | 57 | 1012.5 |
| 20260504175803 | 27 | 124 | 9.7 | 17.7 | 0.00 | 0.00 | 0.00 | 57 | 1012.6 |
| 20260504175702 | 27 | 124 | 8.0 | 17.7 | 0.00 | 0.00 | 0.00 | 57 | 1012.5 |
| 20260504175603 | 27 | 99 | 6.4 | 17.7 | 0.00 | 0.00 | 0.00 | 56 | 1012.6 |
| 20260504175503 | 27 | 165 | 6.4 | 17.7 | 0.00 | 0.00 | 0.00 | 58 | 1012.5 |
| 20260504175403 | 27 | 104 | 6.4 | 17.7 | 0.00 | 0.00 | 0.00 | 58 | 1012.5 |
| 20260504175304 | 27 | 197 | 8.0 | 17.7 | 0.00 | 0.00 | 0.00 | 57 | 1012.4 |
| 20260504175202 | 27 | 180 | 8.0 | 17.7 | 0.00 | 0.00 | 0.00 | 57 | 1012.6 |
| 20260504175102 | 27 | 220 | 6.4 | 17.7 | 0.00 | 0.00 | 0.00 | 59 | 1012.6 |
| 20260504175004 | 26 | 58 | 8.0 | 17.7 | 0.00 | 0.00 | 0.00 | 58 | 1012.6 |
| 20260504174904 | 26 | 203 | 8.0 | 24.1 | 0.00 | 0.00 | 0.00 | 57 | 1012.5 |
| 20260504174802 | 26 | 221 | 8.0 | 24.1 | 0.00 | 0.00 | 0.00 | 59 | 1012.6 |
| 20260504174702 | 26 | 223 | 6.4 | 24.1 | 0.00 | 0.00 | 0.00 | 60 | 1012.6 |
| 20260504174604 | 26 | 148 | 9.7 | 24.1 | 0.00 | 0.00 | 0.00 | 59 | 1012.6 |
| 20260504174503 | 26 | 123 | 12.9 | 24.1 | 0.00 | 0.00 | 0.00 | 58 | 1012.6 |
| 20260504174402 | 26 | 72 | 9.7 | 24.1 | 0.00 | 0.00 | 0.00 | 58 | 1012.6 |
| 20260504174302 | 26 | 162 | 9.7 | 24.1 | 0.00 | 0.00 | 0.00 | 57 | 1012.6 |
| 20260504174202 | 26 | 147 | 9.7 | 24.1 | 0.00 | 0.00 | 0.00 | 56 | 1012.7 |
| 20260504174102 | 26 | 87 | 9.7 | 24.1 | 0.00 | 0.00 | 0.00 | 57 | 1012.7 |
| 20260504174002 | 27 | 145 | 11.3 | 24.1 | 0.00 | 0.00 | 0.00 | 56 | 1012.7 |
| 20260504173904 | 27 | 172 | 9.7 | 22.5 | 0.00 | 0.00 | 0.00 | 56 | 1012.7 |
| 20260504173803 | 27 | 179 | 11.3 | 22.5 | 0.00 | 0.00 | 0.00 | 57 | 1012.7 |
| 20260504173702 | 27 | 123 | 9.7 | 22.5 | 0.00 | 0.00 | 0.00 | 56 | 1012.8 |
| 20260504173602 | 27 | 165 | 11.3 | 22.5 | 0.00 | 0.00 | 0.00 | 55 | 1012.8 |
| 20260504173504 | 27 | 158 | 12.9 | 22.5 | 0.00 | 0.00 | 0.00 | 56 | 1012.8 |
| 20260504173402 | 27 | 173 | 12.9 | 22.5 | 0.00 | 0.00 | 0.00 | 55 | 1012.8 |
| 20260504173303 | 27 | 186 | 11.3 | 25.7 | 0.00 | 0.00 | 0.00 | 55 | 1012.7 |
| 20260504173203 | 27 | 180 | 8.0 | 25.7 | 0.00 | 0.00 | 0.00 | 57 | 1012.8 |
| 20260504173102 | 27 | 255 | 9.7 | 25.7 | 0.00 | 0.00 | 0.00 | 57 | 1012.8 |
| 20260504173002 | 27 | 221 | 9.7 | 25.7 | 0.00 | 0.00 | 0.00 | 56 | 1012.9 |
| 20260504172903 | 27 | 209 | 8.0 | 25.7 | 0.00 | 0.00 | 0.00 | 56 | 1012.8 |
| 20260504172802 | 26 | 175 | 8.0 | 25.7 | 0.00 | 0.00 | 0.00 | 55 | 1012.8 |
| 20260504172703 | 27 | 185 | 8.0 | 25.7 | 0.00 | 0.00 | 0.00 | 55 | 1012.9 |
| 20260504172603 | 26 | 175 | 8.0 | 25.7 | 0.00 | 0.00 | 0.00 | 57 | 1013.0 |
| 20260504172505 | 26 | 206 | 16.1 | 25.7 | 0.00 | 0.00 | 0.00 | 57 | 1012.9 |
| 20260504172402 | 27 | 235 | 16.1 | 25.7 | 0.00 | 0.00 | 0.00 | 56 | 1013.0 |
| 20260504172303 | 27 | 224 | 11.3 | 25.7 | 0.00 | 0.00 | 0.00 | 57 | 1013.0 |
| 20260504172203 | 27 | 183 | 9.7 | 25.7 | 0.00 | 0.00 | 0.00 | 57 | 1013.0 |
| 20260504172102 | 26 | 135 | 11.3 | 25.7 | 0.00 | 0.00 | 0.00 | 57 | 1013.0 |
| 20260504172004 | 26 | 192 | 12.9 | 25.7 | 0.00 | 0.00 | 0.00 | 56 | 1013.1 |
| 20260504171902 | 26 | 197 | 9.7 | 25.7 | 0.00 | 0.00 | 0.00 | 57 | 1013.1 |
| 20260504171802 | 26 | 212 | 11.3 | 24.1 | 0.00 | 0.00 | 0.00 | 56 | 1013.1 |
| 20260504171703 | 26 | 183 | 14.5 | 24.1 | 0.00 | 0.00 | 0.00 | 56 | 1013.1 |
| 20260504171603 | 26 | 203 | 14.5 | 24.1 | 0.00 | 0.00 | 0.00 | 56 | 1013.2 |
| 20260504171506 | 26 | 206 | 11.3 | 24.1 | 0.00 | 0.00 | 0.00 | 55 | 1013.1 |
| 20260504171403 | 26 | 159 | 11.3 | 22.5 | 0.00 | 0.00 | 0.00 | 55 | 1013.1 |
| 20260504171303 | 26 | 164 | 12.9 | 24.1 | 0.00 | 0.00 | 0.00 | 54 | 1013.1 |
| 20260504171204 | 27 | 130 | 12.9 | 24.1 | 0.00 | 0.00 | 0.00 | 55 | 1013.2 |
| 20260504171103 | 27 | 161 | 11.3 | 24.1 | 0.00 | 0.00 | 0.00 | 56 | 1013.2 |
| 20260504171002 | 27 | 165 | 11.3 | 24.1 | 0.00 | 0.00 | 0.00 | 56 | 1013.1 |
| 20260504170903 | 26 | 192 | 11.3 | 24.1 | 0.00 | 0.00 | 0.00 | 56 | 1013.2 |
| 20260504170804 | 26 | 158 | 12.9 | 24.1 | 0.00 | 0.00 | 0.00 | 57 | 1013.3 |
| 20260504170701 | 26 | 176 | 11.3 | 24.1 | 0.00 | 0.00 | 0.00 | 57 | 1013.2 |
| 20260504170602 | 26 | 172 | 8.0 | 24.1 | 0.00 | 0.00 | 0.00 | 57 | 1013.1 |
| 20260504170505 | 26 | 134 | 8.0 | 24.1 | 0.00 | 0.00 | 0.00 | 57 | 1013.1 |
| 20260504170404 | 26 | 309 | 9.7 | 24.1 | 0.00 | 0.00 | 0.00 | 57 | 1013.1 |
| 20260504170303 | 26 | 195 | 11.3 | 22.5 | 0.00 | 0.00 | 0.00 | 58 | 1013.1 |
| 20260504170202 | 26 | 238 | 14.5 | 22.5 | 0.00 | 0.00 | 0.00 | 58 | 1013.3 |
| 20260504170104 | 26 | 199 | 14.5 | 22.5 | 0.00 | 0.00 | 0.00 | 57 | 1013.2 |
| 20260504160434 | 25 | 103 | 8.0 | 22.5 | 0.00 | 0.00 | 0.00 | 62 | 1014.0 |
| 20260504160334 | 25 | 204 | 11.3 | 24.1 | 0.00 | 0.00 | 0.00 | 61 | 1014.0 |
| 20260504160233 | 25 | 212 | 8.0 | 24.1 | 0.00 | 0.00 | 0.00 | 63 | 1014.0 |
| 20260504160134 | 25 | 164 | 6.4 | 24.1 | 0.00 | 0.00 | 0.00 | 63 | 1014.0 |
| 20260504151127 | 23 | 134 | 11.3 | 24.1 | 0.00 | 0.00 | 0.00 | 65 | 1014.2 |
| 20260504151026 | 23 | 102 | 14.5 | 25.7 | 0.00 | 0.00 | 0.00 | 65 | 1014.2 |
| 20260504150925 | 23 | 152 | 14.5 | 25.7 | 0.00 | 0.00 | 0.00 | 64 | 1014.2 |
| 20260504150824 | 23 | 104 | 12.9 | 25.7 | 0.00 | 0.00 | 0.00 | 65 | 1014.2 |
| 20260504150721 | 24 | 75 | 12.9 | 25.7 | 0.00 | 0.00 | 0.00 | 64 | 1014.1 |
| 20260504150621 | 23 | 190 | 9.7 | 25.7 | 0.00 | 0.00 | 0.00 | 65 | 1014.2 |
| 20260504150519 | 23 | 195 | 8.0 | 25.7 | 0.00 | 0.00 | 0.00 | 65 | 1014.1 |
| 20260504150415 | 23 | 190 | 9.7 | 25.7 | 0.00 | 0.00 | 0.00 | 65 | 1014.2 |
| 20260504150315 | 23 | 226 | 11.3 | 25.7 | 0.00 | 0.00 | 0.00 | 65 | 1014.2 |
| 20260504150215 | 23 | 243 | 14.5 | 25.7 | 0.00 | 0.00 | 0.00 | 64 | 1014.2 |
| 20260504150115 | 23 | 189 | 16.1 | 25.7 | 0.00 | 0.00 | 0.00 | 64 | 1014.3 |
| 20260504141332 | 22 | 159 | 6.4 | 16.1 | 0.00 | 0.00 | 0.00 | 67 | 1014.1 |
| 20260504141232 | 22 | 207 | 8.0 | 16.1 | 0.00 | 0.00 | 0.00 | 67 | 1014.1 |
| 20260504141131 | 22 | 175 | 8.0 | 16.1 | 0.00 | 0.00 | 0.00 | 67 | 1014.1 |
| 20260504141031 | 22 | 166 | 9.7 | 16.1 | 0.00 | 0.00 | 0.00 | 67 | 1014.0 |
| 20260504140933 | 22 | 183 | 9.7 | 16.1 | 0.00 | 0.00 | 0.00 | 67 | 1014.0 |
| 20260504140832 | 22 | 158 | 9.7 | 16.1 | 0.00 | 0.00 | 0.00 | 67 | 1014.1 |
| 20260504140731 | 22 | 171 | 6.4 | 14.5 | 0.00 | 0.00 | 0.00 | 67 | 1014.0 |
| 20260504140632 | 22 | 103 | 6.4 | 14.5 | 0.00 | 0.00 | 0.00 | 67 | 1014.1 |
| 20260504140530 | 22 | 173 | 8.0 | 16.1 | 0.00 | 0.00 | 0.00 | 67 | 1014.1 |
| 20260504140431 | 22 | 152 | 6.4 | 19.3 | 0.00 | 0.00 | 0.00 | 67 | 1014.2 |
| 20260504140331 | 21 | 175 | 4.8 | 19.3 | 0.00 | 0.00 | 0.00 | 68 | 1014.2 |
| 20260504140232 | 21 | 130 | 3.2 | 19.3 | 0.00 | 0.00 | 0.00 | 68 | 1014.2 |
| 20260504140131 | 21 | 75 | 4.8 | 19.3 | 0.00 | 0.00 | 0.00 | 68 | 1014.1 |
| 20260504130731 | 19 | 141 | 1.6 | 6.4 | 0.00 | 0.00 | 0.00 | 75 | 1014.3 |
| 20260504130630 | 18 | 131 | 1.6 | 8.0 | 0.00 | 0.00 | 0.00 | 75 | 1014.2 |
| 20260504130531 | 18 | 116 | 3.2 | 8.0 | 0.00 | 0.00 | 0.00 | 75 | 1014.3 |
| 20260504130431 | 18 | 166 | 3.2 | 8.0 | 0.00 | 0.00 | 0.00 | 75 | 1014.2 |
| 20260504130331 | 18 | 130 | 3.2 | 8.0 | 0.00 | 0.00 | 0.00 | 75 | 1014.3 |
| 20260504130230 | 18 | 130 | 3.2 | 8.0 | 0.00 | 0.00 | 0.00 | 75 | 1014.2 |
| 20260504130131 | 18 | 134 | 4.8 | 8.0 | 0.00 | 0.00 | 0.00 | 75 | 1014.3 |
| 20260504120303 | 16 | 32 | 0.0 | 0.0 | 0.00 | 0.00 | 0.00 | 80 | 1013.9 |
| 20260504120202 | 16 | 30 | 0.0 | 0.0 | 0.00 | 0.00 | 0.00 | 80 | 1013.8 |
| 20260504110629 | 16 | 30 | 0.0 | 0.0 | 0.00 | 0.00 | 0.00 | 80 | 1013.7 |
| 20260504110527 | 16 | 30 | 0.0 | 0.0 | 0.00 | 0.00 | 0.00 | 80 | 1013.7 |
| 20260504110428 | 16 | 28 | 0.0 | 0.0 | 0.00 | 0.00 | 0.00 | 80 | 1013.7 |
| 20260504110327 | 16 | 28 | 0.0 | 0.0 | 0.00 | 0.00 | 0.00 | 80 | 1013.7 |
| 20260504110229 | 16 | 28 | 0.0 | 0.0 | 0.00 | 0.00 | 0.00 | 80 | 1013.7 |
| 20260504110126 | 16 | 28 | 0.0 | 0.0 | 0.00 | 0.00 | 0.00 | 80 | 1013.8 |
| 20260504100526 | 16 | 25 | 1.6 | 6.4 | 0.00 | 0.00 | 0.00 | 80 | 1013.8 |
| 20260504100425 | 16 | 30 | 3.2 | 6.4 | 0.00 | 0.00 | 0.00 | 80 | 1013.9 |
| 20260504100326 | 16 | 24 | 3.2 | 6.4 | 0.00 | 0.00 | 0.00 | 80 | 1013.9 |
| 20260504100225 | 16 | 30 | 0.0 | 6.4 | 0.00 | 0.00 | 0.00 | 80 | 1013.9 |
| 20260504100127 | 16 | 25 | 0.0 | 1.6 | 0.00 | 0.00 | 0.00 | 80 | 1014.0 |
| 20260504090126 | 16 | 41 | 0.0 | 0.0 | 0.00 | 0.00 | 0.00 | 81 | 1014.4 |
| 20260504082004 | 16 | 35 | 0.0 | 0.0 | 0.00 | 0.00 | 0.00 | 80 | 1014.6 |
| 20260504081903 | 16 | 35 | 0.0 | 0.0 | 0.00 | 0.00 | 0.00 | 80 | 1014.5 |
| 20260504081802 | 16 | 35 | 0.0 | 0.0 | 0.00 | 0.00 | 0.00 | 80 | 1014.6 |
| 20260504081701 | 16 | 35 | 0.0 | 0.0 | 0.00 | 0.00 | 0.00 | 80 | 1014.7 |
| 20260504081602 | 16 | 37 | 0.0 | 0.0 | 0.00 | 0.00 | 0.00 | 80 | 1014.7 |
| 20260504081505 | 16 | 37 | 0.0 | 0.0 | 0.00 | 0.00 | 0.00 | 80 | 1014.7 |
| 20260504081404 | 16 | 35 | 0.0 | 0.0 | 0.00 | 0.00 | 0.00 | 80 | 1014.7 |
| 20260504081302 | 16 | 37 | 0.0 | 0.0 | 0.00 | 0.00 | 0.00 | 80 | 1014.8 |
| 20260504081204 | 16 | 35 | 0.0 | 0.0 | 0.00 | 0.00 | 0.00 | 80 | 1014.7 |
| 20260504081103 | 16 | 35 | 0.0 | 0.0 | 0.00 | 0.00 | 0.00 | 80 | 1014.6 |
| 20260504081003 | 16 | 35 | 0.0 | 0.0 | 0.00 | 0.00 | 0.00 | 80 | 1014.7 |
| 20260504080901 | 16 | 35 | 0.0 | 0.0 | 0.00 | 0.00 | 0.00 | 80 | 1014.6 |
| 20260504080803 | 16 | 35 | 0.0 | 0.0 | 0.00 | 0.00 | 0.00 | 79 | 1014.6 |
| 20260504080702 | 16 | 35 | 0.0 | 0.0 | 0.00 | 0.00 | 0.00 | 79 | 1014.6 |
| 20260504080602 | 16 | 35 | 0.0 | 0.0 | 0.00 | 0.00 | 0.00 | 79 | 1014.7 |
| 20260504080502 | 16 | 35 | 0.0 | 0.0 | 0.00 | 0.00 | 0.00 | 79 | 1014.8 |
| 20260504080403 | 16 | 35 | 0.0 | 0.0 | 0.00 | 0.00 | 0.00 | 79 | 1014.8 |
| 20260504080303 | 16 | 34 | 0.0 | 0.0 | 0.00 | 0.00 | 0.00 | 79 | 1014.8 |
| 20260504080203 | 16 | 37 | 0.0 | 0.0 | 0.00 | 0.00 | 0.00 | 79 | 1014.9 |
| 20260504070403 | 17 | 32 | 1.6 | 4.8 | 0.00 | 0.00 | 0.00 | 71 | 1015.6 |
| 20260504070303 | 17 | 34 | 1.6 | 4.8 | 0.00 | 0.00 | 0.00 | 71 | 1015.6 |
| 20260504070200 | 17 | 32 | 1.6 | 4.8 | 0.00 | 0.00 | 0.00 | 71 | 1015.6 |
| 20260504060221 | 17 | 27 | 0.0 | 4.8 | 0.00 | 0.00 | 0.00 | 70 | 1016.0 |
| 20260504060121 | 17 | 28 | 0.0 | 4.8 | 0.00 | 0.00 | 0.00 | 70 | 1016.0 |
| 20260504050220 | 18 | 27 | 3.2 | 4.8 | 0.00 | 0.00 | 0.00 | 69 | 1016.4 |
| 20260504050120 | 18 | 24 | 3.2 | 4.8 | 0.00 | 0.00 | 0.00 | 69 | 1016.5 |
| 20260504050020 | 18 | 28 | 1.6 | 4.8 | 0.00 | 0.00 | 0.00 | 69 | 1016.5 |
| 20260504045919 | 18 | 24 | 0.0 | 0.0 | 0.00 | 0.00 | 0.00 | 69 | 1016.5 |
| 20260504045820 | 18 | 24 | 0.0 | 1.6 | 0.00 | 0.00 | 0.00 | 69 | 1016.4 |
| 20260504045719 | 18 | 23 | 0.0 | 3.2 | 0.00 | 0.00 | 0.00 | 69 | 1016.4 |
| 20260504045618 | 18 | 25 | 0.0 | 3.2 | 0.00 | 0.00 | 0.00 | 69 | 1016.5 |
| 20260504045520 | 18 | 27 | 0.0 | 4.8 | 0.00 | 0.00 | 0.00 | 69 | 1016.4 |
| 20260504045420 | 18 | 25 | 0.0 | 4.8 | 0.00 | 0.00 | 0.00 | 69 | 1016.3 |
| 20260504045319 | 18 | 25 | 0.0 | 4.8 | 0.00 | 0.00 | 0.00 | 69 | 1016.4 |
| 20260504045218 | 18 | 27 | 0.0 | 4.8 | 0.00 | 0.00 | 0.00 | 68 | 1016.4 |
| 20260504045120 | 18 | 28 | 0.0 | 4.8 | 0.00 | 0.00 | 0.00 | 68 | 1016.5 |
| 20260504045019 | 18 | 30 | 0.0 | 4.8 | 0.00 | 0.00 | 0.00 | 68 | 1016.5 |
| 20260504044918 | 18 | 30 | 1.6 | 4.8 | 0.00 | 0.00 | 0.00 | 68 | 1016.5 |
| 20260504044819 | 18 | 30 | 1.6 | 4.8 | 0.00 | 0.00 | 0.00 | 68 | 1016.5 |
| 20260504044718 | 18 | 30 | 1.6 | 4.8 | 0.00 | 0.00 | 0.00 | 68 | 1016.5 |
| 20260504044619 | 18 | 30 | 1.6 | 4.8 | 0.00 | 0.00 | 0.00 | 68 | 1016.6 |
| 20260504044519 | 18 | 34 | 0.0 | 4.8 | 0.00 | 0.00 | 0.00 | 67 | 1016.5 |
| 20260504044420 | 18 | 32 | 0.0 | 4.8 | 0.00 | 0.00 | 0.00 | 67 | 1016.5 |
| 20260504044320 | 18 | 32 | 0.0 | 4.8 | 0.00 | 0.00 | 0.00 | 67 | 1016.6 |
| 20260504044219 | 18 | 31 | 0.0 | 6.4 | 0.00 | 0.00 | 0.00 | 67 | 1016.6 |
| 20260504044119 | 18 | 32 | 0.0 | 6.4 | 0.00 | 0.00 | 0.00 | 67 | 1016.6 |
| 20260504044019 | 18 | 32 | 1.6 | 6.4 | 0.00 | 0.00 | 0.00 | 67 | 1016.6 |
| 20260504043918 | 18 | 32 | 3.2 | 6.4 | 0.00 | 0.00 | 0.00 | 67 | 1016.5 |
| 20260504043816 | 18 | 32 | 3.2 | 6.4 | 0.00 | 0.00 | 0.00 | 67 | 1016.5 |
| 20260504043715 | 18 | 32 | 3.2 | 6.4 | 0.00 | 0.00 | 0.00 | 67 | 1016.6 |
| 20260504043612 | 18 | 34 | 1.6 | 6.4 | 0.00 | 0.00 | 0.00 | 67 | 1016.6 |
| 20260504043511 | 18 | 34 | 1.6 | 8.0 | 0.00 | 0.00 | 0.00 | 67 | 1016.5 |
| 20260504043408 | 18 | 24 | 3.2 | 8.0 | 0.00 | 0.00 | 0.00 | 67 | 1016.6 |
| 20260504043304 | 18 | 24 | 3.2 | 8.0 | 0.00 | 0.00 | 0.00 | 67 | 1016.6 |
| 20260504043202 | 18 | 27 | 1.6 | 8.0 | 0.00 | 0.00 | 0.00 | 67 | 1016.5 |
| 20260504043103 | 18 | 21 | 0.0 | 9.7 | 0.00 | 0.00 | 0.00 | 66 | 1016.5 |
| 20260504043004 | 18 | 30 | 0.0 | 9.7 | 0.00 | 0.00 | 0.00 | 66 | 1016.6 |
| 20260504042903 | 18 | 31 | 1.6 | 9.7 | 0.00 | 0.00 | 0.00 | 66 | 1016.6 |
| 20260504042801 | 18 | 31 | 3.2 | 9.7 | 0.00 | 0.00 | 0.00 | 66 | 1016.6 |
| 20260504042701 | 18 | 27 | 4.8 | 9.7 | 0.00 | 0.00 | 0.00 | 66 | 1016.7 |
| 20260504042603 | 18 | 34 | 4.8 | 9.7 | 0.00 | 0.00 | 0.00 | 66 | 1016.7 |
| 20260504042502 | 18 | 30 | 4.8 | 9.7 | 0.00 | 0.00 | 0.00 | 66 | 1016.6 |
| 20260504042403 | 18 | 31 | 3.2 | 9.7 | 0.00 | 0.00 | 0.00 | 66 | 1016.6 |
| 20260504042304 | 18 | 32 | 4.8 | 9.7 | 0.00 | 0.00 | 0.00 | 66 | 1016.6 |
| 20260504042203 | 18 | 32 | 4.8 | 9.7 | 0.00 | 0.00 | 0.00 | 66 | 1016.6 |
| 20260504042102 | 18 | 37 | 3.2 | 8.0 | 0.00 | 0.00 | 0.00 | 66 | 1016.6 |
| 20260504042003 | 18 | 30 | 3.2 | 8.0 | 0.00 | 0.00 | 0.00 | 66 | 1016.6 |
| 20260504041903 | 18 | 30 | 4.8 | 8.0 | 0.00 | 0.00 | 0.00 | 66 | 1016.6 |
| 20260504041803 | 18 | 34 | 6.4 | 8.0 | 0.00 | 0.00 | 0.00 | 66 | 1016.6 |
| 20260504041703 | 18 | 31 | 4.8 | 8.0 | 0.00 | 0.00 | 0.00 | 66 | 1016.6 |
| 20260504041602 | 18 | 30 | 4.8 | 8.0 | 0.00 | 0.00 | 0.00 | 66 | 1016.6 |
| 20260504041503 | 18 | 34 | 4.8 | 8.0 | 0.00 | 0.00 | 0.00 | 66 | 1016.6 |
| 20260504041403 | 18 | 25 | 3.2 | 8.0 | 0.00 | 0.00 | 0.00 | 66 | 1016.6 |
| 20260504041303 | 19 | 28 | 3.2 | 6.4 | 0.00 | 0.00 | 0.00 | 66 | 1016.6 |
| 20260504041203 | 19 | 28 | 3.2 | 6.4 | 0.00 | 0.00 | 0.00 | 66 | 1016.6 |
| 20260504041102 | 19 | 34 | 3.2 | 6.4 | 0.00 | 0.00 | 0.00 | 66 | 1016.6 |
| 20260504040959 | 18 | 35 | 3.2 | 6.4 | 0.00 | 0.00 | 0.00 | 66 | 1016.7 |
| 20260504040857 | 18 | 34 | 4.8 | 6.4 | 0.00 | 0.00 | 0.00 | 66 | 1016.6 |
| 20260504040756 | 18 | 35 | 3.2 | 6.4 | 0.00 | 0.00 | 0.00 | 66 | 1016.6 |
| 20260504040655 | 18 | 32 | 3.2 | 6.4 | 0.00 | 0.00 | 0.00 | 66 | 1016.7 |
| 20260504040552 | 18 | 31 | 3.2 | 6.4 | 0.00 | 0.00 | 0.00 | 66 | 1016.6 |
| 20260504040452 | 18 | 25 | 3.2 | 6.4 | 0.00 | 0.00 | 0.00 | 66 | 1016.5 |
| 20260504040349 | 18 | 25 | 3.2 | 6.4 | 0.00 | 0.00 | 0.00 | 66 | 1016.6 |
| 20260504040248 | 18 | 28 | 3.2 | 6.4 | 0.00 | 0.00 | 0.00 | 66 | 1016.6 |
| 20260504040148 | 18 | 27 | 3.2 | 6.4 | 0.00 | 0.00 | 0.00 | 66 | 1016.6 |
| 20260504040045 | 18 | 25 | 3.2 | 6.4 | 0.00 | 0.00 | 0.00 | 66 | 1016.6 |
| 20260504035945 | 18 | 31 | 3.2 | 6.4 | 0.00 | 0.00 | 0.00 | 66 | 1016.5 |
| 20260504035842 | 18 | 30 | 1.6 | 6.4 | 0.00 | 0.00 | 0.00 | 66 | 1016.5 |
| 20260504035741 | 18 | 28 | 1.6 | 6.4 | 0.00 | 0.00 | 0.00 | 66 | 1016.5 |
| 20260504035639 | 18 | 28 | 1.6 | 6.4 | 0.00 | 0.00 | 0.00 | 66 | 1016.5 |
| 20260504035538 | 18 | 28 | 1.6 | 6.4 | 0.00 | 0.00 | 0.00 | 66 | 1016.5 |
| 20260504035438 | 19 | 25 | 1.6 | 6.4 | 0.00 | 0.00 | 0.00 | 66 | 1016.5 |
| 20260504035335 | 19 | 27 | 3.2 | 6.4 | 0.00 | 0.00 | 0.00 | 66 | 1016.5 |
| 20260504035231 | 19 | 27 | 3.2 | 6.4 | 0.00 | 0.00 | 0.00 | 65 | 1016.5 |
| 20260504035132 | 19 | 30 | 3.2 | 6.4 | 0.00 | 0.00 | 0.00 | 65 | 1016.5 |
| 20260504035030 | 19 | 28 | 3.2 | 6.4 | 0.00 | 0.00 | 0.00 | 65 | 1016.5 |
| 20260504034932 | 19 | 28 | 3.2 | 6.4 | 0.00 | 0.00 | 0.00 | 66 | 1016.5 |
| 20260504034832 | 19 | 25 | 3.2 | 6.4 | 0.00 | 0.00 | 0.00 | 66 | 1016.5 |
| 20260504034731 | 19 | 24 | 3.2 | 6.4 | 0.00 | 0.00 | 0.00 | 66 | 1016.6 |
| 20260504034631 | 19 | 31 | 3.2 | 6.4 | 0.00 | 0.00 | 0.00 | 66 | 1016.7 |
| 20260504034531 | 18 | 27 | 3.2 | 6.4 | 0.00 | 0.00 | 0.00 | 66 | 1016.7 |
| 20260504034431 | 18 | 28 | 3.2 | 6.4 | 0.00 | 0.00 | 0.00 | 66 | 1016.7 |
| 20260504034332 | 18 | 30 | 3.2 | 6.4 | 0.00 | 0.00 | 0.00 | 66 | 1016.7 |
| 20260504034231 | 18 | 27 | 1.6 | 6.4 | 0.00 | 0.00 | 0.00 | 66 | 1016.7 |
| 20260504034132 | 19 | 28 | 0.0 | 6.4 | 0.00 | 0.00 | 0.00 | 66 | 1016.6 |
| 20260504034031 | 19 | 27 | 0.0 | 6.4 | 0.00 | 0.00 | 0.00 | 66 | 1016.6 |
| 20260504033931 | 19 | 28 | 0.0 | 6.4 | 0.00 | 0.00 | 0.00 | 66 | 1016.6 |
| 20260504033832 | 19 | 27 | 0.0 | 6.4 | 0.00 | 0.00 | 0.00 | 66 | 1016.6 |
| 20260504033731 | 19 | 27 | 0.0 | 6.4 | 0.00 | 0.00 | 0.00 | 65 | 1016.6 |
| 20260504033631 | 19 | 27 | 1.6 | 6.4 | 0.00 | 0.00 | 0.00 | 65 | 1016.6 |
| 20260504033531 | 19 | 28 | 3.2 | 6.4 | 0.00 | 0.00 | 0.00 | 65 | 1016.6 |
| 20260504033431 | 19 | 25 | 3.2 | 6.4 | 0.00 | 0.00 | 0.00 | 65 | 1016.6 |
| 20260504033332 | 19 | 21 | 3.2 | 6.4 | 0.00 | 0.00 | 0.00 | 65 | 1016.6 |
| 20260504033232 | 19 | 27 | 3.2 | 6.4 | 0.00 | 0.00 | 0.00 | 65 | 1016.6 |
| 20260504033132 | 19 | 27 | 3.2 | 6.4 | 0.00 | 0.00 | 0.00 | 65 | 1016.6 |
| 20260504033031 | 19 | 30 | 3.2 | 6.4 | 0.00 | 0.00 | 0.00 | 65 | 1016.6 |
| 20260504032931 | 19 | 30 | 3.2 | 6.4 | 0.00 | 0.00 | 0.00 | 65 | 1016.6 |
| 20260504032830 | 19 | 31 | 3.2 | 6.4 | 0.00 | 0.00 | 0.00 | 65 | 1016.6 |
| 20260504032732 | 19 | 31 | 3.2 | 6.4 | 0.00 | 0.00 | 0.00 | 65 | 1016.6 |
| 20260504032630 | 19 | 30 | 3.2 | 6.4 | 0.00 | 0.00 | 0.00 | 65 | 1016.7 |
| 20260504032530 | 19 | 32 | 3.2 | 6.4 | 0.00 | 0.00 | 0.00 | 65 | 1016.6 |
| 20260504032427 | 19 | 138 | 3.2 | 6.4 | 0.00 | 0.00 | 0.00 | 65 | 1016.6 |
| 20260504032326 | 19 | 148 | 3.2 | 6.4 | 0.00 | 0.00 | 0.00 | 65 | 1016.6 |
| 20260504032221 | 19 | 141 | 1.6 | 6.4 | 0.00 | 0.00 | 0.00 | 65 | 1016.6 |
| 20260504032119 | 19 | 106 | 1.6 | 6.4 | 0.00 | 0.00 | 0.00 | 64 | 1016.6 |
| 20260504032018 | 19 | 100 | 1.6 | 6.4 | 0.00 | 0.00 | 0.00 | 64 | 1016.6 |
| 20260504031917 | 19 | 100 | 3.2 | 6.4 | 0.00 | 0.00 | 0.00 | 64 | 1016.6 |
| 20260504031818 | 19 | 166 | 1.6 | 6.4 | 0.00 | 0.00 | 0.00 | 64 | 1016.5 |
| 20260504031717 | 20 | 137 | 1.6 | 8.0 | 0.00 | 0.00 | 0.00 | 63 | 1016.6 |
| 20260504031616 | 20 | 142 | 3.2 | 8.0 | 0.00 | 0.00 | 0.00 | 63 | 1016.5 |
| 20260504031516 | 20 | 133 | 3.2 | 8.0 | 0.00 | 0.00 | 0.00 | 63 | 1016.5 |
| 20260504031417 | 20 | 159 | 1.6 | 8.0 | 0.00 | 0.00 | 0.00 | 62 | 1016.5 |
| 20260504031317 | 20 | 131 | 1.6 | 8.0 | 0.00 | 0.00 | 0.00 | 62 | 1016.5 |
| 20260504031216 | 20 | 96 | 3.2 | 8.0 | 0.00 | 0.00 | 0.00 | 62 | 1016.5 |
| 20260504031116 | 20 | 140 | 3.2 | 11.3 | 0.00 | 0.00 | 0.00 | 62 | 1016.5 |
| 20260504031017 | 20 | 148 | 1.6 | 11.3 | 0.00 | 0.00 | 0.00 | 62 | 1016.5 |
| 20260504030916 | 20 | 147 | 3.2 | 11.3 | 0.00 | 0.00 | 0.00 | 62 | 1016.5 |
| 20260504030816 | 20 | 178 | 4.8 | 11.3 | 0.00 | 0.00 | 0.00 | 62 | 1016.5 |
| 20260504030718 | 20 | 120 | 4.8 | 11.3 | 0.00 | 0.00 | 0.00 | 62 | 1016.5 |
| 20260504030617 | 20 | 195 | 3.2 | 11.3 | 0.00 | 0.00 | 0.00 | 62 | 1016.5 |
| 20260504030517 | 20 | 171 | 3.2 | 11.3 | 0.00 | 0.00 | 0.00 | 62 | 1016.5 |
| 20260504030417 | 20 | 158 | 4.8 | 11.3 | 0.00 | 0.00 | 0.00 | 62 | 1016.5 |
| 20260504030317 | 20 | 172 | 4.8 | 11.3 | 0.00 | 0.00 | 0.00 | 62 | 1016.6 |
| 20260504030216 | 20 | 168 | 6.4 | 11.3 | 0.00 | 0.00 | 0.00 | 62 | 1016.5 |
| 20260504030116 | 20 | 149 | 3.2 | 11.3 | 0.00 | 0.00 | 0.00 | 62 | 1016.6 |
| 20260504030017 | 20 | 111 | 3.2 | 11.3 | 0.00 | 0.00 | 0.00 | 62 | 1016.5 |
| 20260504025916 | 20 | 164 | 4.8 | 11.3 | 0.00 | 0.00 | 0.00 | 62 | 1016.5 |
| 20260504025818 | 20 | 171 | 3.2 | 11.3 | 0.00 | 0.00 | 0.00 | 62 | 1016.5 |
| 20260504025717 | 20 | 140 | 3.2 | 11.3 | 0.00 | 0.00 | 0.00 | 61 | 1016.4 |
| 20260504025616 | 20 | 144 | 4.8 | 11.3 | 0.00 | 0.00 | 0.00 | 61 | 1016.4 |
| 20260504025517 | 20 | 161 | 4.8 | 11.3 | 0.00 | 0.00 | 0.00 | 61 | 1016.3 |
| 20260504025416 | 20 | 118 | 4.8 | 11.3 | 0.00 | 0.00 | 0.00 | 61 | 1016.4 |
| 20260504025318 | 20 | 193 | 6.4 | 11.3 | 0.00 | 0.00 | 0.00 | 61 | 1016.4 |
| 20260504025216 | 20 | 183 | 6.4 | 11.3 | 0.00 | 0.00 | 0.00 | 61 | 1016.4 |
| 20260504025116 | 20 | 159 | 4.8 | 11.3 | 0.00 | 0.00 | 0.00 | 61 | 1016.4 |
| 20260504025016 | 20 | 149 | 4.8 | 11.3 | 0.00 | 0.00 | 0.00 | 61 | 1016.5 |
| 20260504024916 | 20 | 147 | 6.4 | 11.3 | 0.00 | 0.00 | 0.00 | 61 | 1016.5 |
| 20260504024815 | 20 | 164 | 6.4 | 11.3 | 0.00 | 0.00 | 0.00 | 61 | 1016.4 |
| 20260504024716 | 20 | 155 | 4.8 | 11.3 | 0.00 | 0.00 | 0.00 | 60 | 1016.4 |
| 20260504024617 | 20 | 159 | 3.2 | 11.3 | 0.00 | 0.00 | 0.00 | 60 | 1016.3 |
| 20260504024517 | 20 | 169 | 6.4 | 11.3 | 0.00 | 0.00 | 0.00 | 60 | 1016.4 |
| 20260504024416 | 20 | 169 | 6.4 | 11.3 | 0.00 | 0.00 | 0.00 | 60 | 1016.4 |
| 20260504024317 | 20 | 169 | 6.4 | 11.3 | 0.00 | 0.00 | 0.00 | 60 | 1016.4 |
| 20260504024215 | 20 | 200 | 6.4 | 14.5 | 0.00 | 0.00 | 0.00 | 60 | 1016.4 |
| 20260504024117 | 20 | 154 | 6.4 | 14.5 | 0.00 | 0.00 | 0.00 | 60 | 1016.4 |
| 20260504024018 | 20 | 116 | 6.4 | 14.5 | 0.00 | 0.00 | 0.00 | 59 | 1016.4 |
| 20260504023916 | 20 | 164 | 6.4 | 16.1 | 0.00 | 0.00 | 0.00 | 59 | 1016.5 |
| 20260504023816 | 20 | 168 | 4.8 | 16.1 | 0.00 | 0.00 | 0.00 | 59 | 1016.5 |
| 20260504023715 | 20 | 128 | 4.8 | 16.1 | 0.00 | 0.00 | 0.00 | 59 | 1016.5 |
| 20260504023616 | 20 | 140 | 6.4 | 16.1 | 0.00 | 0.00 | 0.00 | 59 | 1016.5 |
| 20260504023516 | 21 | 151 | 4.8 | 16.1 | 0.00 | 0.00 | 0.00 | 59 | 1016.4 |
| 20260504023417 | 21 | 159 | 6.4 | 16.1 | 0.00 | 0.00 | 0.00 | 59 | 1016.6 |
| 20260504023315 | 21 | 182 | 8.0 | 16.1 | 0.00 | 0.00 | 0.00 | 58 | 1016.4 |
| 20260504023217 | 21 | 193 | 6.4 | 16.1 | 0.00 | 0.00 | 0.00 | 58 | 1016.5 |
| 20260504023115 | 21 | 196 | 8.0 | 16.1 | 0.00 | 0.00 | 0.00 | 58 | 1016.5 |
| 20260504023015 | 21 | 186 | 6.4 | 16.1 | 0.00 | 0.00 | 0.00 | 58 | 1016.4 |
| 20260504022917 | 21 | 192 | 6.4 | 16.1 | 0.00 | 0.00 | 0.00 | 58 | 1016.5 |
| 20260504022817 | 21 | 168 | 8.0 | 16.1 | 0.00 | 0.00 | 0.00 | 58 | 1016.4 |
| 20260504022715 | 21 | 141 | 6.4 | 16.1 | 0.00 | 0.00 | 0.00 | 58 | 1016.4 |
| 20260504022616 | 21 | 151 | 8.0 | 16.1 | 0.00 | 0.00 | 0.00 | 58 | 1016.4 |
| 20260504022518 | 21 | 144 | 8.0 | 16.1 | 0.00 | 0.00 | 0.00 | 58 | 1016.4 |
| 20260504022417 | 21 | 199 | 8.0 | 16.1 | 0.00 | 0.00 | 0.00 | 58 | 1016.4 |
| 20260504022316 | 21 | 158 | 8.0 | 16.1 | 0.00 | 0.00 | 0.00 | 58 | 1016.4 |
| 20260504022216 | 21 | 148 | 8.0 | 16.1 | 0.00 | 0.00 | 0.00 | 58 | 1016.4 |
| 20260504022116 | 21 | 207 | 6.4 | 16.1 | 0.00 | 0.00 | 0.00 | 58 | 1016.3 |
| 20260504022015 | 21 | 169 | 6.4 | 16.1 | 0.00 | 0.00 | 0.00 | 58 | 1016.2 |
| 20260504021915 | 21 | 199 | 6.4 | 16.1 | 0.00 | 0.00 | 0.00 | 58 | 1016.2 |
| 20260504021817 | 21 | 155 | 8.0 | 24.1 | 0.00 | 0.00 | 0.00 | 58 | 1016.2 |
| 20260504021717 | 21 | 172 | 8.0 | 24.1 | 0.00 | 0.00 | 0.00 | 58 | 1016.2 |
| 20260504021615 | 21 | 165 | 6.4 | 24.1 | 0.00 | 0.00 | 0.00 | 58 | 1016.2 |
| 20260504021516 | 21 | 138 | 6.4 | 24.1 | 0.00 | 0.00 | 0.00 | 57 | 1016.3 |
| 20260504021416 | 21 | 107 | 8.0 | 24.1 | 0.00 | 0.00 | 0.00 | 57 | 1016.2 |
| 20260504021316 | 21 | 140 | 6.4 | 24.1 | 0.00 | 0.00 | 0.00 | 57 | 1016.2 |
| 20260504021217 | 21 | 137 | 4.8 | 24.1 | 0.00 | 0.00 | 0.00 | 57 | 1016.3 |
| 20260504021115 | 21 | 113 | 6.4 | 24.1 | 0.00 | 0.00 | 0.00 | 57 | 1016.3 |
| 20260504021015 | 21 | 168 | 8.0 | 24.1 | 0.00 | 0.00 | 0.00 | 57 | 1016.2 |
| 20260504020914 | 21 | 138 | 9.7 | 24.1 | 0.00 | 0.00 | 0.00 | 57 | 1016.2 |
| 20260504020816 | 21 | 133 | 8.0 | 20.9 | 0.00 | 0.00 | 0.00 | 57 | 1016.2 |
| 20260504020715 | 21 | 199 | 6.4 | 20.9 | 0.00 | 0.00 | 0.00 | 57 | 1016.2 |
| 20260504020615 | 21 | 148 | 8.0 | 20.9 | 0.00 | 0.00 | 0.00 | 56 | 1016.2 |
| 20260504020516 | 21 | 168 | 9.7 | 20.9 | 0.00 | 0.00 | 0.00 | 56 | 1016.2 |
| 20260504020416 | 21 | 124 | 9.7 | 20.9 | 0.00 | 0.00 | 0.00 | 56 | 1016.2 |
| 20260504020315 | 21 | 159 | 8.0 | 20.9 | 0.00 | 0.00 | 0.00 | 56 | 1016.1 |
| 20260504020215 | 21 | 92 | 9.7 | 20.9 | 0.00 | 0.00 | 0.00 | 56 | 1016.1 |
| 20260504020116 | 21 | 180 | 12.9 | 20.9 | 0.00 | 0.00 | 0.00 | 56 | 1016.1 |
| 20260504020017 | 21 | 140 | 11.3 | 20.9 | 0.00 | 0.00 | 0.00 | 56 | 1016.1 |
| 20260504015914 | 21 | 155 | 8.0 | 16.1 | 0.00 | 0.00 | 0.00 | 56 | 1016.1 |
| 20260504015814 | 21 | 157 | 8.0 | 14.5 | 0.00 | 0.00 | 0.00 | 56 | 1016.1 |
| 20260504015711 | 21 | 124 | 6.4 | 14.5 | 0.00 | 0.00 | 0.00 | 56 | 1016.1 |
| 20260504015609 | 21 | 161 | 4.8 | 14.5 | 0.00 | 0.00 | 0.00 | 57 | 1016.1 |
| 20260504015509 | 21 | 197 | 6.4 | 14.5 | 0.00 | 0.00 | 0.00 | 57 | 1016.2 |
| 20260504015407 | 21 | 144 | 6.4 | 14.5 | 0.00 | 0.00 | 0.00 | 56 | 1016.2 |
| 20260504015308 | 21 | 162 | 6.4 | 14.5 | 0.00 | 0.00 | 0.00 | 56 | 1016.1 |
| 20260504015206 | 21 | 130 | 4.8 | 14.5 | 0.00 | 0.00 | 0.00 | 56 | 1016.1 |
| 20260504015105 | 21 | 141 | 4.8 | 14.5 | 0.00 | 0.00 | 0.00 | 56 | 1016.2 |
| 20260504015004 | 21 | 175 | 4.8 | 14.5 | 0.00 | 0.00 | 0.00 | 56 | 1016.1 |
| 20260504014903 | 21 | 164 | 4.8 | 14.5 | 0.00 | 0.00 | 0.00 | 56 | 1016.2 |
| 20260504014802 | 21 | 130 | 6.4 | 11.3 | 0.00 | 0.00 | 0.00 | 56 | 1016.2 |
| 20260504014702 | 21 | 149 | 6.4 | 11.3 | 0.00 | 0.00 | 0.00 | 56 | 1016.1 |
| 20260504014603 | 21 | 157 | 4.8 | 14.5 | 0.00 | 0.00 | 0.00 | 56 | 1016.1 |
| 20260504014503 | 21 | 138 | 4.8 | 14.5 | 0.00 | 0.00 | 0.00 | 56 | 1016.1 |
| 20260504014402 | 21 | 159 | 4.8 | 14.5 | 0.00 | 0.00 | 0.00 | 56 | 1016.2 |
| 20260504014301 | 21 | 158 | 4.8 | 14.5 | 0.00 | 0.00 | 0.00 | 56 | 1016.1 |
| 20260504014203 | 21 | 176 | 4.8 | 14.5 | 0.00 | 0.00 | 0.00 | 55 | 1016.1 |
| 20260504014102 | 21 | 113 | 4.8 | 14.5 | 0.00 | 0.00 | 0.00 | 55 | 1016.1 |
| 20260504014002 | 21 | 192 | 6.4 | 14.5 | 0.00 | 0.00 | 0.00 | 55 | 1016.1 |
| 20260504013903 | 21 | 158 | 6.4 | 14.5 | 0.00 | 0.00 | 0.00 | 55 | 1016.1 |
| 20260504013802 | 21 | 140 | 6.4 | 14.5 | 0.00 | 0.00 | 0.00 | 55 | 1016.1 |
| 20260504013702 | 21 | 155 | 8.0 | 14.5 | 0.00 | 0.00 | 0.00 | 55 | 1016.0 |
| 20260504013602 | 21 | 173 | 8.0 | 14.5 | 0.00 | 0.00 | 0.00 | 55 | 1015.9 |
| 20260504013503 | 21 | 152 | 4.8 | 14.5 | 0.00 | 0.00 | 0.00 | 56 | 1016.0 |
| 20260504013403 | 21 | 142 | 3.2 | 14.5 | 0.00 | 0.00 | 0.00 | 55 | 1015.9 |
| 20260504013302 | 21 | 118 | 4.8 | 14.5 | 0.00 | 0.00 | 0.00 | 55 | 1015.9 |
| 20260504013202 | 21 | 141 | 4.8 | 14.5 | 0.00 | 0.00 | 0.00 | 55 | 1015.9 |
| 20260504013103 | 21 | 227 | 6.4 | 14.5 | 0.00 | 0.00 | 0.00 | 55 | 1015.8 |
| 20260504013002 | 21 | 147 | 6.4 | 14.5 | 0.00 | 0.00 | 0.00 | 55 | 1015.9 |
| 20260504012903 | 22 | 137 | 4.8 | 14.5 | 0.00 | 0.00 | 0.00 | 54 | 1015.9 |
| 20260504012802 | 22 | 148 | 6.4 | 14.5 | 0.00 | 0.00 | 0.00 | 54 | 1015.9 |
| 20260504012702 | 22 | 147 | 6.4 | 14.5 | 0.00 | 0.00 | 0.00 | 54 | 1015.8 |
| 20260504012603 | 22 | 172 | 4.8 | 14.5 | 0.00 | 0.00 | 0.00 | 54 | 1015.9 |
| 20260504012504 | 22 | 189 | 6.4 | 16.1 | 0.00 | 0.00 | 0.00 | 54 | 1015.8 |
| 20260504012402 | 22 | 195 | 6.4 | 16.1 | 0.00 | 0.00 | 0.00 | 54 | 1015.9 |
| 20260504012304 | 22 | 134 | 8.0 | 16.1 | 0.00 | 0.00 | 0.00 | 54 | 1015.8 |
| 20260504012204 | 22 | 168 | 8.0 | 16.1 | 0.00 | 0.00 | 0.00 | 54 | 1015.9 |
| 20260504012103 | 22 | 130 | 6.4 | 16.1 | 0.00 | 0.00 | 0.00 | 54 | 1015.9 |
| 20260504012004 | 22 | 169 | 6.4 | 16.1 | 0.00 | 0.00 | 0.00 | 54 | 1015.9 |
| 20260504011903 | 22 | 175 | 6.4 | 16.1 | 0.00 | 0.00 | 0.00 | 54 | 1015.8 |
| 20260504011803 | 22 | 83 | 4.8 | 17.7 | 0.00 | 0.00 | 0.00 | 54 | 1015.9 |
| 20260504011702 | 22 | 148 | 6.4 | 17.7 | 0.00 | 0.00 | 0.00 | 54 | 1015.8 |
| 20260504011603 | 22 | 159 | 6.4 | 17.7 | 0.00 | 0.00 | 0.00 | 54 | 1015.8 |
| 20260504011504 | 22 | 176 | 6.4 | 17.7 | 0.00 | 0.00 | 0.00 | 54 | 1015.9 |
| 20260504011402 | 22 | 206 | 4.8 | 17.7 | 0.00 | 0.00 | 0.00 | 54 | 1015.9 |
| 20260504011303 | 22 | 124 | 4.8 | 17.7 | 0.00 | 0.00 | 0.00 | 54 | 1015.9 |
| 20260504011203 | 22 | 172 | 4.8 | 17.7 | 0.00 | 0.00 | 0.00 | 54 | 1015.9 |
| 20260504011102 | 22 | 175 | 4.8 | 17.7 | 0.00 | 0.00 | 0.00 | 54 | 1015.9 |
| 20260504011003 | 22 | 199 | 8.0 | 17.7 | 0.00 | 0.00 | 0.00 | 54 | 1015.9 |
| 20260504010903 | 22 | 164 | 8.0 | 17.7 | 0.00 | 0.00 | 0.00 | 53 | 1015.8 |
| 20260504010804 | 22 | 171 | 6.4 | 16.1 | 0.00 | 0.00 | 0.00 | 54 | 1015.8 |
| 20260504010702 | 22 | 172 | 6.4 | 16.1 | 0.00 | 0.00 | 0.00 | 54 | 1015.8 |
| 20260504010602 | 22 | 152 | 4.8 | 16.1 | 0.00 | 0.00 | 0.00 | 53 | 1015.8 |
| 20260504010503 | 22 | 166 | 6.4 | 16.1 | 0.00 | 0.00 | 0.00 | 53 | 1015.7 |
| 20260504010402 | 22 | 147 | 6.4 | 16.1 | 0.00 | 0.00 | 0.00 | 53 | 1015.8 |
| 20260504010302 | 22 | 161 | 6.4 | 16.1 | 0.00 | 0.00 | 0.00 | 53 | 1015.8 |
| 20260504010202 | 22 | 166 | 4.8 | 16.1 | 0.00 | 0.00 | 0.00 | 53 | 1015.8 |
| 20260504010003 | 22 | 117 | 8.0 | 16.1 | 0.00 | 0.00 | 0.00 | 52 | 1015.8 |
| 20260504005904 | 22 | 145 | 6.4 | 16.1 | 0.00 | 0.00 | 0.00 | 53 | 1015.8 |
| 20260504005803 | 22 | 206 | 3.2 | 11.3 | 0.00 | 0.00 | 0.00 | 52 | 1015.9 |
| 20260504005702 | 22 | 107 | 3.2 | 11.3 | 0.00 | 0.00 | 0.00 | 52 | 1015.8 |
| 20260504005602 | 22 | 158 | 4.8 | 11.3 | 0.00 | 0.00 | 0.00 | 52 | 1015.9 |
| 20260504005504 | 22 | 141 | 4.8 | 11.3 | 0.00 | 0.00 | 0.00 | 52 | 1015.8 |
| 20260504005403 | 22 | 68 | 3.2 | 19.3 | 0.00 | 0.00 | 0.00 | 51 | 1015.8 |
| 20260504005304 | 22 | 121 | 3.2 | 19.3 | 0.00 | 0.00 | 0.00 | 52 | 1015.8 |
| 20260504005202 | 22 | 92 | 3.2 | 19.3 | 0.00 | 0.00 | 0.00 | 52 | 1015.9 |
| 20260504005104 | 22 | 134 | 6.4 | 19.3 | 0.00 | 0.00 | 0.00 | 51 | 1015.8 |
| 20260504005002 | 22 | 99 | 8.0 | 19.3 | 0.00 | 0.00 | 0.00 | 51 | 1015.8 |
| 20260504004903 | 22 | 76 | 8.0 | 19.3 | 0.00 | 0.00 | 0.00 | 51 | 1015.8 |
| 20260504004803 | 22 | 140 | 6.4 | 19.3 | 0.00 | 0.00 | 0.00 | 51 | 1015.7 |
| 20260504004703 | 22 | 113 | 6.4 | 19.3 | 0.00 | 0.00 | 0.00 | 51 | 1015.7 |
| 20260504004603 | 23 | 131 | 9.7 | 19.3 | 0.00 | 0.00 | 0.00 | 51 | 1015.8 |
| 20260504004502 | 23 | 117 | 14.5 | 19.3 | 0.00 | 0.00 | 0.00 | 51 | 1015.8 |
| 20260504004403 | 23 | 111 | 12.9 | 19.3 | 0.00 | 0.00 | 0.00 | 51 | 1015.8 |
| 20260504004303 | 23 | 110 | 9.7 | 19.3 | 0.00 | 0.00 | 0.00 | 51 | 1015.8 |
| 20260504004202 | 23 | 123 | 9.7 | 16.1 | 0.00 | 0.00 | 0.00 | 51 | 1015.8 |
| 20260504004103 | 23 | 39 | 8.0 | 16.1 | 0.00 | 0.00 | 0.00 | 51 | 1015.9 |
| 20260504004003 | 23 | 35 | 8.0 | 16.1 | 0.00 | 0.00 | 0.00 | 51 | 1015.8 |
| 20260504003902 | 23 | 45 | 9.7 | 17.7 | 0.00 | 0.00 | 0.00 | 51 | 1015.9 |
| 20260504003803 | 23 | 55 | 11.3 | 17.7 | 0.00 | 0.00 | 0.00 | 51 | 1015.9 |
| 20260504003703 | 23 | 58 | 11.3 | 17.7 | 0.00 | 0.00 | 0.00 | 51 | 1015.9 |
| 20260504003603 | 23 | 59 | 9.7 | 17.7 | 0.00 | 0.00 | 0.00 | 50 | 1015.9 |
| 20260504003503 | 23 | 66 | 9.7 | 17.7 | 0.00 | 0.00 | 0.00 | 50 | 1015.9 |
| 20260504003403 | 23 | 100 | 11.3 | 17.7 | 0.00 | 0.00 | 0.00 | 50 | 1015.9 |
| 20260504003302 | 23 | 72 | 11.3 | 17.7 | 0.00 | 0.00 | 0.00 | 50 | 1015.9 |
| 20260504003203 | 23 | 55 | 11.3 | 17.7 | 0.00 | 0.00 | 0.00 | 50 | 1015.9 |
| 20260504003103 | 23 | 76 | 11.3 | 17.7 | 0.00 | 0.00 | 0.00 | 50 | 1015.9 |
| 20260504003003 | 23 | 71 | 11.3 | 17.7 | 0.00 | 0.00 | 0.00 | 50 | 1015.9 |
| 20260504002902 | 23 | 73 | 11.3 | 17.7 | 0.00 | 0.00 | 0.00 | 50 | 1015.8 |
| 20260504002802 | 23 | 75 | 9.7 | 17.7 | 0.00 | 0.00 | 0.00 | 50 | 1015.9 |
| 20260504002704 | 23 | 80 | 9.7 | 17.7 | 0.00 | 0.00 | 0.00 | 50 | 1015.9 |
| 20260504002602 | 23 | 73 | 9.7 | 17.7 | 0.00 | 0.00 | 0.00 | 50 | 1015.8 |
| 20260504002503 | 23 | 47 | 6.4 | 17.7 | 0.00 | 0.00 | 0.00 | 49 | 1015.8 |
| 20260504002403 | 23 | 48 | 8.0 | 17.7 | 0.00 | 0.00 | 0.00 | 49 | 1015.7 |
| 20260504002303 | 23 | 79 | 11.3 | 17.7 | 0.00 | 0.00 | 0.00 | 49 | 1015.7 |
| 20260504002203 | 23 | 59 | 9.7 | 17.7 | 0.00 | 0.00 | 0.00 | 49 | 1015.7 |
| 20260504002103 | 23 | 55 | 9.7 | 17.7 | 0.00 | 0.00 | 0.00 | 49 | 1015.7 |
| 20260504002002 | 23 | 133 | 12.9 | 19.3 | 0.00 | 0.00 | 0.00 | 48 | 1015.7 |
| 20260504001902 | 23 | 103 | 12.9 | 20.9 | 0.00 | 0.00 | 0.00 | 48 | 1015.8 |
| 20260504001801 | 23 | 102 | 12.9 | 20.9 | 0.00 | 0.00 | 0.00 | 48 | 1015.7 |
| 20260504001703 | 23 | 97 | 11.3 | 20.9 | 0.00 | 0.00 | 0.00 | 48 | 1015.8 |
| 20260504001602 | 23 | 113 | 11.3 | 20.9 | 0.00 | 0.00 | 0.00 | 48 | 1015.8 |
| 20260504001503 | 23 | 97 | 11.3 | 20.9 | 0.00 | 0.00 | 0.00 | 48 | 1015.9 |
| 20260504001403 | 23 | 117 | 11.3 | 20.9 | 0.00 | 0.00 | 0.00 | 48 | 1015.9 |
| 20260504001303 | 23 | 111 | 11.3 | 20.9 | 0.00 | 0.00 | 0.00 | 48 | 1015.8 |
| 20260504001203 | 23 | 97 | 12.9 | 20.9 | 0.00 | 0.00 | 0.00 | 48 | 1015.8 |
| 20260504001102 | 23 | 106 | 14.5 | 22.5 | 0.00 | 0.00 | 0.00 | 47 | 1015.8 |
| 20260504001004 | 24 | 93 | 14.5 | 22.5 | 0.00 | 0.00 | 0.00 | 47 | 1015.7 |
| 20260504000902 | 24 | 96 | 12.9 | 22.5 | 0.00 | 0.00 | 0.00 | 47 | 1015.9 |
| 20260504000802 | 24 | 93 | 12.9 | 22.5 | 0.00 | 0.00 | 0.00 | 47 | 1015.9 |
| 20260504000704 | 24 | 100 | 11.3 | 22.5 | 0.00 | 0.00 | 0.00 | 47 | 1015.9 |
| 20260504000603 | 24 | 109 | 12.9 | 22.5 | 0.00 | 0.00 | 0.00 | 47 | 1015.9 |
| 20260504000504 | 24 | 96 | 14.5 | 22.5 | 0.00 | 0.00 | 0.00 | 47 | 1016.0 |
| 20260504000403 | 24 | 100 | 14.5 | 22.5 | 0.00 | 0.00 | 0.00 | 47 | 1015.9 |
| 20260504000303 | 24 | 110 | 16.1 | 22.5 | 0.00 | 0.00 | 0.00 | 47 | 1016.0 |
| 20260504000201 | 24 | 86 | 16.1 | 22.5 | 0.00 | 0.00 | 0.00 | 47 | 1015.9 |
| 20260504000005 | 24 | 113 | 11.3 | 22.5 | 0.00 | 0.00 | 0.00 | 47 | 1016.0 |
| 20260503235902 | 24 | 117 | 12.9 | 22.5 | 0.00 | 0.00 | 0.00 | 46 | 1015.9 |
| 20260503235801 | 24 | 123 | 12.9 | 22.5 | 0.00 | 0.00 | 0.00 | 47 | 1015.9 |
| 20260503235703 | 24 | 116 | 12.9 | 22.5 | 0.00 | 0.00 | 0.00 | 46 | 1016.0 |
| 20260503235603 | 24 | 106 | 12.9 | 22.5 | 0.00 | 0.00 | 0.00 | 46 | 1016.0 |
| 20260503235502 | 24 | 89 | 11.3 | 20.9 | 0.00 | 0.00 | 0.00 | 46 | 1015.9 |
| 20260503235403 | 25 | 80 | 9.7 | 20.9 | 0.00 | 0.00 | 0.00 | 46 | 1015.9 |
| 20260503235304 | 25 | 86 | 9.7 | 20.9 | 0.00 | 0.00 | 0.00 | 46 | 1016.0 |
| 20260503235202 | 25 | 109 | 8.0 | 20.9 | 0.00 | 0.00 | 0.00 | 46 | 1015.9 |
| 20260503235103 | 25 | 73 | 9.7 | 20.9 | 0.00 | 0.00 | 0.00 | 46 | 1015.9 |
| 20260503235005 | 25 | 141 | 9.7 | 20.9 | 0.00 | 0.00 | 0.00 | 47 | 1015.9 |
| 20260503234902 | 25 | 82 | 8.0 | 20.9 | 0.00 | 0.00 | 0.00 | 46 | 1016.0 |
| 20260503234802 | 24 | 103 | 11.3 | 20.9 | 0.00 | 0.00 | 0.00 | 46 | 1015.9 |
| 20260503234702 | 25 | 123 | 12.9 | 20.9 | 0.00 | 0.00 | 0.00 | 46 | 1016.0 |
| 20260503234603 | 25 | 103 | 12.9 | 20.9 | 0.00 | 0.00 | 0.00 | 46 | 1015.9 |
| 20260503234502 | 25 | 104 | 14.5 | 20.9 | 0.00 | 0.00 | 0.00 | 46 | 1016.0 |
| 20260503234402 | 25 | 99 | 11.3 | 19.3 | 0.00 | 0.00 | 0.00 | 46 | 1016.0 |
| 20260503234303 | 25 | 111 | 8.0 | 19.3 | 0.00 | 0.00 | 0.00 | 46 | 1016.0 |
| 20260503234202 | 25 | 152 | 6.4 | 19.3 | 0.00 | 0.00 | 0.00 | 46 | 1016.1 |
| 20260503234102 | 25 | 94 | 6.4 | 19.3 | 0.00 | 0.00 | 0.00 | 46 | 1016.0 |
| 20260503234002 | 25 | 124 | 9.7 | 19.3 | 0.00 | 0.00 | 0.00 | 46 | 1016.0 |
| 20260503233902 | 25 | 141 | 11.3 | 19.3 | 0.00 | 0.00 | 0.00 | 45 | 1016.0 |
| 20260503233802 | 25 | 104 | 11.3 | 19.3 | 0.00 | 0.00 | 0.00 | 45 | 1016.1 |
| 20260503233702 | 25 | 85 | 12.9 | 19.3 | 0.00 | 0.00 | 0.00 | 45 | 1016.0 |
| 20260503233602 | 25 | 96 | 14.5 | 24.1 | 0.00 | 0.00 | 0.00 | 45 | 1016.0 |
| 20260503233504 | 25 | 92 | 11.3 | 24.1 | 0.00 | 0.00 | 0.00 | 45 | 1016.1 |
| 20260503233402 | 25 | 102 | 9.7 | 24.1 | 0.00 | 0.00 | 0.00 | 45 | 1016.1 |
| 20260503233302 | 25 | 120 | 9.7 | 24.1 | 0.00 | 0.00 | 0.00 | 43 | 1016.1 |
| 20260503233203 | 25 | 107 | 9.7 | 24.1 | 0.00 | 0.00 | 0.00 | 43 | 1016.0 |
| 20260503233102 | 25 | 110 | 9.7 | 24.1 | 0.00 | 0.00 | 0.00 | 43 | 1016.0 |
| 20260503233002 | 25 | 85 | 9.7 | 24.1 | 0.00 | 0.00 | 0.00 | 43 | 1016.1 |
| 20260503232903 | 25 | 96 | 9.7 | 24.1 | 0.00 | 0.00 | 0.00 | 43 | 1016.1 |
| 20260503232802 | 25 | 78 | 12.9 | 24.1 | 0.00 | 0.00 | 0.00 | 43 | 1016.1 |
| 20260503232702 | 25 | 106 | 14.5 | 24.1 | 0.00 | 0.00 | 0.00 | 43 | 1016.1 |
| 20260503232603 | 25 | 94 | 11.3 | 17.7 | 0.00 | 0.00 | 0.00 | 44 | 1016.2 |
| 20260503232502 | 25 | 87 | 11.3 | 17.7 | 0.00 | 0.00 | 0.00 | 43 | 1016.1 |
| 20260503232402 | 25 | 93 | 11.3 | 17.7 | 0.00 | 0.00 | 0.00 | 43 | 1016.1 |
| 20260503232305 | 25 | 102 | 9.7 | 16.1 | 0.00 | 0.00 | 0.00 | 43 | 1016.1 |
| 20260503232204 | 25 | 80 | 9.7 | 16.1 | 0.00 | 0.00 | 0.00 | 43 | 1016.1 |
| 20260503232101 | 25 | 97 | 9.7 | 16.1 | 0.00 | 0.00 | 0.00 | 43 | 1016.1 |
| 20260503231959 | 25 | 109 | 8.0 | 16.1 | 0.00 | 0.00 | 0.00 | 44 | 1016.2 |
| 20260503231858 | 25 | 113 | 6.4 | 16.1 | 0.00 | 0.00 | 0.00 | 44 | 1016.0 |
| 20260503231756 | 25 | 152 | 4.8 | 16.1 | 0.00 | 0.00 | 0.00 | 44 | 1016.1 |
| 20260503231655 | 25 | 99 | 4.8 | 17.7 | 0.00 | 0.00 | 0.00 | 44 | 1016.0 |
| 20260503231555 | 25 | 200 | 6.4 | 17.7 | 0.00 | 0.00 | 0.00 | 43 | 1016.1 |
| 20260503231451 | 25 | 111 | 9.7 | 17.7 | 0.00 | 0.00 | 0.00 | 42 | 1016.0 |
| 20260503231350 | 25 | 117 | 8.0 | 17.7 | 0.00 | 0.00 | 0.00 | 43 | 1016.0 |
| 20260503231249 | 25 | 106 | 6.4 | 17.7 | 0.00 | 0.00 | 0.00 | 44 | 1016.1 |
| 20260503231148 | 25 | 164 | 6.4 | 17.7 | 0.00 | 0.00 | 0.00 | 43 | 1016.1 |
| 20260503231047 | 25 | 180 | 6.4 | 17.7 | 0.00 | 0.00 | 0.00 | 43 | 1016.1 |
| 20260503230945 | 25 | 103 | 8.0 | 17.7 | 0.00 | 0.00 | 0.00 | 43 | 1016.1 |
| 20260503230843 | 25 | 158 | 8.0 | 17.7 | 0.00 | 0.00 | 0.00 | 43 | 1016.1 |
| 20260503230741 | 25 | 202 | 9.7 | 17.7 | 0.00 | 0.00 | 0.00 | 44 | 1016.1 |
| 20260503230640 | 25 | 102 | 9.7 | 16.1 | 0.00 | 0.00 | 0.00 | 43 | 1016.1 |
| 20260503230538 | 25 | 94 | 8.0 | 16.1 | 0.00 | 0.00 | 0.00 | 43 | 1016.1 |
| 20260503230438 | 25 | 106 | 6.4 | 16.1 | 0.00 | 0.00 | 0.00 | 43 | 1016.2 |
| 20260503230332 | 25 | 106 | 8.0 | 16.1 | 0.00 | 0.00 | 0.00 | 42 | 1016.2 |
| 20260503230231 | 25 | 110 | 11.3 | 16.1 | 0.00 | 0.00 | 0.00 | 42 | 1016.2 |
| 20260503230131 | 25 | 114 | 12.9 | 16.1 | 0.00 | 0.00 | 0.00 | 42 | 1016.2 |
| 20260503230032 | 25 | 114 | 11.3 | 19.3 | 0.00 | 0.00 | 0.00 | 42 | 1016.2 |
| 20260503225931 | 25 | 90 | 9.7 | 19.3 | 0.00 | 0.00 | 0.00 | 42 | 1016.2 |
| 20260503225831 | 25 | 114 | 9.7 | 19.3 | 0.00 | 0.00 | 0.00 | 43 | 1016.3 |
| 20260503225732 | 25 | 90 | 8.0 | 19.3 | 0.00 | 0.00 | 0.00 | 43 | 1016.2 |
| 20260503225631 | 25 | 180 | 4.8 | 19.3 | 0.00 | 0.00 | 0.00 | 43 | 1016.2 |
| 20260503225531 | 25 | 111 | 6.4 | 20.9 | 0.00 | 0.00 | 0.00 | 43 | 1016.3 |
| 20260503225433 | 25 | 114 | 6.4 | 20.9 | 0.00 | 0.00 | 0.00 | 43 | 1016.3 |
| 20260503225332 | 25 | 117 | 9.7 | 20.9 | 0.00 | 0.00 | 0.00 | 43 | 1016.2 |
| 20260503225231 | 25 | 142 | 11.3 | 20.9 | 0.00 | 0.00 | 0.00 | 43 | 1016.2 |
| 20260503225131 | 25 | 116 | 11.3 | 20.9 | 0.00 | 0.00 | 0.00 | 43 | 1016.2 |
| 20260503225031 | 25 | 93 | 11.3 | 20.9 | 0.00 | 0.00 | 0.00 | 44 | 1016.2 |
| 20260503224933 | 25 | 102 | 11.3 | 20.9 | 0.00 | 0.00 | 0.00 | 43 | 1016.2 |
| 20260503224830 | 25 | 110 | 12.9 | 20.9 | 0.00 | 0.00 | 0.00 | 42 | 1016.2 |
| 20260503224732 | 25 | 111 | 16.1 | 22.5 | 0.00 | 0.00 | 0.00 | 42 | 1016.2 |
| 20260503224632 | 25 | 124 | 17.7 | 22.5 | 0.00 | 0.00 | 0.00 | 42 | 1016.3 |
| 20260503224532 | 26 | 128 | 16.1 | 22.5 | 0.00 | 0.00 | 0.00 | 42 | 1016.3 |
| 20260503224432 | 26 | 102 | 12.9 | 22.5 | 0.00 | 0.00 | 0.00 | 42 | 1016.2 |
| 20260503224332 | 26 | 97 | 8.0 | 22.5 | 0.00 | 0.00 | 0.00 | 43 | 1016.2 |
| 20260503224230 | 26 | 135 | 6.4 | 22.5 | 0.00 | 0.00 | 0.00 | 44 | 1016.1 |
| 20260503224131 | 25 | 71 | 9.7 | 22.5 | 0.00 | 0.00 | 0.00 | 43 | 1016.2 |
| 20260503224031 | 25 | 93 | 12.9 | 22.5 | 0.00 | 0.00 | 0.00 | 42 | 1016.2 |
| 20260503223931 | 25 | 89 | 14.5 | 22.5 | 0.00 | 0.00 | 0.00 | 42 | 1016.3 |
| 20260503223831 | 25 | 102 | 12.9 | 22.5 | 0.00 | 0.00 | 0.00 | 43 | 1016.3 |
| 20260503223732 | 25 | 109 | 11.3 | 17.7 | 0.00 | 0.00 | 0.00 | 42 | 1016.3 |
| 20260503223632 | 26 | 118 | 9.7 | 17.7 | 0.00 | 0.00 | 0.00 | 41 | 1016.4 |
| 20260503223532 | 26 | 111 | 6.4 | 14.5 | 0.00 | 0.00 | 0.00 | 41 | 1016.4 |
| 20260503223431 | 26 | 123 | 8.0 | 14.5 | 0.00 | 0.00 | 0.00 | 41 | 1016.4 |
| 20260503223331 | 26 | 117 | 9.7 | 14.5 | 0.00 | 0.00 | 0.00 | 42 | 1016.4 |
| 20260503223231 | 25 | 97 | 9.7 | 14.5 | 0.00 | 0.00 | 0.00 | 42 | 1016.4 |
| 20260503223132 | 25 | 92 | 9.7 | 14.5 | 0.00 | 0.00 | 0.00 | 41 | 1016.3 |
| 20260503223032 | 25 | 124 | 9.7 | 14.5 | 0.00 | 0.00 | 0.00 | 41 | 1016.4 |
| 20260503222932 | 25 | 76 | 9.7 | 14.5 | 0.00 | 0.00 | 0.00 | 41 | 1016.3 |
| 20260503222831 | 25 | 89 | 9.7 | 14.5 | 0.00 | 0.00 | 0.00 | 42 | 1016.4 |
| 20260503222732 | 25 | 103 | 8.0 | 14.5 | 0.00 | 0.00 | 0.00 | 42 | 1016.5 |
| 20260503222631 | 25 | 89 | 8.0 | 16.1 | 0.00 | 0.00 | 0.00 | 40 | 1016.5 |
| 20260503222530 | 25 | 99 | 9.7 | 16.1 | 0.00 | 0.00 | 0.00 | 40 | 1016.6 |
| 20260503222430 | 25 | 92 | 9.7 | 17.7 | 0.00 | 0.00 | 0.00 | 40 | 1016.6 |
| 20260503222333 | 25 | 83 | 9.7 | 17.7 | 0.00 | 0.00 | 0.00 | 41 | 1016.6 |
| 20260503222230 | 25 | 114 | 8.0 | 17.7 | 0.00 | 0.00 | 0.00 | 41 | 1016.6 |
| 20260503222130 | 25 | 71 | 4.8 | 17.7 | 0.00 | 0.00 | 0.00 | 41 | 1016.7 |
| 20260503222032 | 25 | 113 | 4.8 | 17.7 | 0.00 | 0.00 | 0.00 | 41 | 1016.7 |
| 20260503221932 | 25 | 107 | 6.4 | 17.7 | 0.00 | 0.00 | 0.00 | 40 | 1016.7 |
| 20260503221831 | 25 | 99 | 9.7 | 17.7 | 0.00 | 0.00 | 0.00 | 40 | 1016.7 |
| 20260503221731 | 25 | 100 | 12.9 | 17.7 | 0.00 | 0.00 | 0.00 | 39 | 1016.6 |
| 20260503221633 | 26 | 99 | 14.5 | 17.7 | 0.00 | 0.00 | 0.00 | 39 | 1016.6 |
| 20260503221532 | 26 | 114 | 12.9 | 17.7 | 0.00 | 0.00 | 0.00 | 40 | 1016.7 |
| 20260503221431 | 26 | 94 | 9.7 | 17.7 | 0.00 | 0.00 | 0.00 | 40 | 1016.7 |
| 20260503221334 | 26 | 65 | 4.8 | 17.7 | 0.00 | 0.00 | 0.00 | 40 | 1016.7 |
| 20260503221231 | 26 | 52 | 4.8 | 17.7 | 0.00 | 0.00 | 0.00 | 39 | 1016.7 |
| 20260503221129 | 26 | 52 | 8.0 | 17.7 | 0.00 | 0.00 | 0.00 | 39 | 1016.7 |
| 20260503221026 | 26 | 80 | 9.7 | 17.7 | 0.00 | 0.00 | 0.00 | 39 | 1016.7 |
| 20260503220926 | 26 | 106 | 11.3 | 17.7 | 0.00 | 0.00 | 0.00 | 40 | 1016.6 |
| 20260503220826 | 26 | 109 | 8.0 | 17.7 | 0.00 | 0.00 | 0.00 | 40 | 1016.6 |
| 20260503220723 | 26 | 94 | 1.6 | 8.0 | 0.00 | 0.00 | 0.00 | 39 | 1016.6 |
| 20260503220622 | 26 | 58 | 1.6 | 9.7 | 0.00 | 0.00 | 0.00 | 38 | 1016.5 |
| 20260503220521 | 26 | 58 | 1.6 | 11.3 | 0.00 | 0.00 | 0.00 | 38 | 1016.5 |
| 20260503220418 | 26 | 20 | 1.6 | 11.3 | 0.00 | 0.00 | 0.00 | 38 | 1016.6 |
| 20260503220318 | 26 | 20 | 3.2 | 11.3 | 0.00 | 0.00 | 0.00 | 38 | 1016.6 |
| 20260503220216 | 26 | 62 | 3.2 | 11.3 | 0.00 | 0.00 | 0.00 | 38 | 1016.6 |
| 20260503220110 | 27 | 75 | 3.2 | 14.5 | 0.00 | 0.00 | 0.00 | 38 | 1016.6 |
| 20260503220012 | 27 | 72 | 3.2 | 16.1 | 0.00 | 0.00 | 0.00 | 38 | 1016.7 |
| 20260503215910 | 27 | 96 | 4.8 | 16.1 | 0.00 | 0.00 | 0.00 | 39 | 1016.7 |
| 20260503215810 | 26 | 200 | 4.8 | 16.1 | 0.00 | 0.00 | 0.00 | 39 | 1016.6 |
| 20260503215709 | 27 | 147 | 6.4 | 16.1 | 0.00 | 0.00 | 0.00 | 39 | 1016.6 |
| 20260503215610 | 26 | 172 | 6.4 | 16.1 | 0.00 | 0.00 | 0.00 | 39 | 1016.6 |
| 20260503215510 | 26 | 125 | 6.4 | 16.1 | 0.00 | 0.00 | 0.00 | 39 | 1016.6 |
| 20260503215410 | 27 | 125 | 4.8 | 16.1 | 0.00 | 0.00 | 0.00 | 39 | 1016.5 |
| 20260503215309 | 27 | 114 | 6.4 | 16.1 | 0.00 | 0.00 | 0.00 | 39 | 1016.6 |
| 20260503215209 | 27 | 178 | 8.0 | 16.1 | 0.00 | 0.00 | 0.00 | 39 | 1016.6 |
| 20260503215112 | 26 | 203 | 4.8 | 16.1 | 0.00 | 0.00 | 0.00 | 39 | 1016.5 |
| 20260503215010 | 26 | 124 | 3.2 | 11.3 | 0.00 | 0.00 | 0.00 | 39 | 1016.6 |
| 20260503214908 | 26 | 121 | 3.2 | 11.3 | 0.00 | 0.00 | 0.00 | 39 | 1016.6 |
| 20260503214811 | 26 | 39 | 3.2 | 11.3 | 0.00 | 0.00 | 0.00 | 39 | 1016.6 |
| 20260503214709 | 26 | 39 | 4.8 | 11.3 | 0.00 | 0.00 | 0.00 | 39 | 1016.6 |
| 20260503214609 | 26 | 32 | 4.8 | 11.3 | 0.00 | 0.00 | 0.00 | 40 | 1016.6 |
| 20260503214510 | 26 | 51 | 6.4 | 11.3 | 0.00 | 0.00 | 0.00 | 39 | 1016.6 |
| 20260503214410 | 26 | 51 | 8.0 | 11.3 | 0.00 | 0.00 | 0.00 | 40 | 1016.7 |
| 20260503214308 | 26 | 42 | 8.0 | 16.1 | 0.00 | 0.00 | 0.00 | 40 | 1016.7 |
| 20260503214209 | 25 | 96 | 6.4 | 17.7 | 0.00 | 0.00 | 0.00 | 40 | 1016.8 |
| 20260503214110 | 25 | 52 | 8.0 | 17.7 | 0.00 | 0.00 | 0.00 | 41 | 1016.8 |
| 20260503214010 | 25 | 44 | 6.4 | 17.7 | 0.00 | 0.00 | 0.00 | 40 | 1016.8 |
| 20260503213910 | 25 | 35 | 1.6 | 17.7 | 0.00 | 0.00 | 0.00 | 39 | 1016.9 |
| 20260503213810 | 25 | 14 | 3.2 | 17.7 | 0.00 | 0.00 | 0.00 | 39 | 1016.9 |
| 20260503213711 | 25 | 14 | 6.4 | 17.7 | 0.00 | 0.00 | 0.00 | 39 | 1016.9 |
| 20260503213608 | 25 | 16 | 8.0 | 17.7 | 0.00 | 0.00 | 0.00 | 39 | 1016.9 |
| 20260503213508 | 26 | 45 | 9.7 | 17.7 | 0.00 | 0.00 | 0.00 | 40 | 1017.0 |
| 20260503213411 | 26 | 65 | 12.9 | 17.7 | 0.00 | 0.00 | 0.00 | 40 | 1017.0 |
| 20260503213309 | 26 | 54 | 11.3 | 17.7 | 0.00 | 0.00 | 0.00 | 41 | 1017.0 |
| 20260503213209 | 26 | 45 | 9.7 | 16.1 | 0.00 | 0.00 | 0.00 | 40 | 1017.1 |
| 20260503213108 | 26 | 44 | 9.7 | 14.5 | 0.00 | 0.00 | 0.00 | 40 | 1017.1 |
| 20260503213010 | 26 | 86 | 8.0 | 14.5 | 0.00 | 0.00 | 0.00 | 40 | 1017.2 |
| 20260503212908 | 26 | 58 | 8.0 | 14.5 | 0.00 | 0.00 | 0.00 | 40 | 1017.2 |
| 20260503212808 | 26 | 52 | 8.0 | 14.5 | 0.00 | 0.00 | 0.00 | 39 | 1017.1 |
| 20260503212710 | 26 | 56 | 8.0 | 14.5 | 0.00 | 0.00 | 0.00 | 39 | 1017.1 |
| 20260503212609 | 26 | 55 | 6.4 | 14.5 | 0.00 | 0.00 | 0.00 | 39 | 1017.1 |
| 20260503212510 | 26 | 45 | 8.0 | 14.5 | 0.00 | 0.00 | 0.00 | 38 | 1017.1 |
| 20260503212409 | 26 | 32 | 6.4 | 16.1 | 0.00 | 0.00 | 0.00 | 38 | 1017.1 |
| 20260503212310 | 26 | 41 | 6.4 | 20.9 | 0.00 | 0.00 | 0.00 | 40 | 1017.2 |
| 20260503212209 | 26 | 85 | 9.7 | 20.9 | 0.00 | 0.00 | 0.00 | 39 | 1017.2 |
| 20260503212108 | 26 | 97 | 8.0 | 20.9 | 0.00 | 0.00 | 0.00 | 40 | 1017.2 |
| 20260503212009 | 26 | 89 | 4.8 | 20.9 | 0.00 | 0.00 | 0.00 | 39 | 1017.2 |
| 20260503211908 | 26 | 93 | 6.4 | 20.9 | 0.00 | 0.00 | 0.00 | 39 | 1017.2 |
| 20260503211808 | 26 | 72 | 6.4 | 20.9 | 0.00 | 0.00 | 0.00 | 39 | 1017.3 |
| 20260503211710 | 26 | 73 | 8.0 | 20.9 | 0.00 | 0.00 | 0.00 | 39 | 1017.2 |
| 20260503211609 | 26 | 80 | 9.7 | 20.9 | 0.00 | 0.00 | 0.00 | 38 | 1017.3 |
| 20260503211508 | 26 | 90 | 14.5 | 20.9 | 0.00 | 0.00 | 0.00 | 38 | 1017.3 |
| 20260503211408 | 26 | 89 | 14.5 | 20.9 | 0.00 | 0.00 | 0.00 | 39 | 1017.3 |
| 20260503211310 | 26 | 93 | 11.3 | 20.9 | 0.00 | 0.00 | 0.00 | 39 | 1017.3 |
| 20260503211208 | 26 | 56 | 11.3 | 20.9 | 0.00 | 0.00 | 0.00 | 39 | 1017.2 |
| 20260503211108 | 26 | 39 | 11.3 | 20.9 | 0.00 | 0.00 | 0.00 | 39 | 1017.3 |
| 20260503211009 | 26 | 103 | 11.3 | 17.7 | 0.00 | 0.00 | 0.00 | 39 | 1017.3 |
| 20260503210909 | 26 | 89 | 6.4 | 17.7 | 0.00 | 0.00 | 0.00 | 40 | 1017.2 |
| 20260503210809 | 26 | 62 | 4.8 | 17.7 | 0.00 | 0.00 | 0.00 | 40 | 1017.3 |
| 20260503210707 | 26 | 118 | 4.8 | 17.7 | 0.00 | 0.00 | 0.00 | 39 | 1017.3 |
| 20260503210606 | 26 | 61 | 4.8 | 17.7 | 0.00 | 0.00 | 0.00 | 39 | 1017.4 |
| 20260503210503 | 26 | 82 | 6.4 | 17.7 | 0.00 | 0.00 | 0.00 | 39 | 1017.3 |
| 20260503210403 | 26 | 103 | 9.7 | 17.7 | 0.00 | 0.00 | 0.00 | 39 | 1017.3 |
| 20260503210304 | 26 | 109 | 11.3 | 17.7 | 0.00 | 0.00 | 0.00 | 37 | 1017.4 |
| 20260503210204 | 27 | 110 | 11.3 | 17.7 | 0.00 | 0.00 | 0.00 | 38 | 1017.4 |
| 20260503210103 | 27 | 83 | 9.7 | 11.3 | 0.00 | 0.00 | 0.00 | 38 | 1017.4 |
| 20260503210003 | 27 | 90 | 6.4 | 9.7 | 0.00 | 0.00 | 0.00 | 37 | 1017.4 |
| 20260503205903 | 27 | 54 | 3.2 | 8.0 | 0.00 | 0.00 | 0.00 | 38 | 1017.4 |
| 20260503205802 | 27 | 69 | 3.2 | 14.5 | 0.00 | 0.00 | 0.00 | 37 | 1017.4 |
| 20260503205703 | 27 | 32 | 4.8 | 14.5 | 0.00 | 0.00 | 0.00 | 37 | 1017.5 |
| 20260503205603 | 27 | 49 | 3.2 | 14.5 | 0.00 | 0.00 | 0.00 | 37 | 1017.3 |
| 20260503205504 | 27 | 71 | 0.0 | 14.5 | 0.00 | 0.00 | 0.00 | 37 | 1017.4 |
| 20260503205402 | 26 | 275 | 1.6 | 14.5 | 0.00 | 0.00 | 0.00 | 37 | 1017.4 |
| 20260503205304 | 27 | 230 | 3.2 | 14.5 | 0.00 | 0.00 | 0.00 | 36 | 1017.5 |
| 20260503205204 | 27 | 123 | 3.2 | 14.5 | 0.00 | 0.00 | 0.00 | 36 | 1017.5 |
| 20260503205102 | 27 | 162 | 4.8 | 14.5 | 0.00 | 0.00 | 0.00 | 36 | 1017.5 |
| 20260503205005 | 27 | 195 | 6.4 | 14.5 | 0.00 | 0.00 | 0.00 | 36 | 1017.5 |